Wetterdaten: Freitag, 05.01.2018
Datum Zeit Temp. Aussen Temp. o. S. +5cm Feuchte Auss BlattFeu 1 Luftdruck Regen Sonnenschein Regendauer Solar Windben Empfang
05.01.2018 00:00 8,3 C 7,8 C 6,7 C 78 % 0 lf 994,3 hPa 0,0 l/m 0 min 0 min 0 W/m 42,8 km/h (6 Bft) 97,87 %
05.01.2018 00:02 8,3 C 7,8 C 6,1 C 78 % 0 lf 994,4 hPa 0,0 l/m 0 min 0 min 0 W/m 54,1 km/h (7 Bft) 94,44 %
05.01.2018 00:04 8,3 C 7,8 C 6,1 C 79 % 0 lf 994,4 hPa 0,0 l/m 0 min 0 min 0 W/m 47,3 km/h (6 Bft) 93,62 %
05.01.2018 00:08 8,2 C 7,8 C 6,1 C 79 % 0 lf 994,3 hPa 0,0 l/m 0 min 0 min 0 W/m 60,8 km/h (7 Bft) 96,84 %
05.01.2018 00:10 8,2 C 7,8 C 6,1 C 78 % 0 lf 994,3 hPa 0,0 l/m 0 min 0 min 0 W/m 42,8 km/h (6 Bft) 95,74 %
05.01.2018 00:12 8,2 C 7,8 C 6,1 C 79 % 0 lf 994,4 hPa 0,0 l/m 0 min 0 min 0 W/m 51,8 km/h (7 Bft) 97,87 %
05.01.2018 00:14 8,2 C 7,8 C 6,1 C 79 % 0 lf 994,4 hPa 0,0 l/m 0 min 0 min 0 W/m 54,1 km/h (7 Bft) 97,87 %
05.01.2018 00:16 8,2 C 7,8 C 6,1 C 79 % 0 lf 994,4 hPa 0,0 l/m 0 min 0 min 0 W/m 38,3 km/h (5 Bft) 97,83 %
05.01.2018 00:18 8,1 C 7,8 C 6,1 C 79 % 0 lf 994,4 hPa 0,0 l/m 0 min 0 min 0 W/m 67,6 km/h (8 Bft) 95,74 %
05.01.2018 00:20 8,1 C 7,8 C 6,1 C 79 % 0 lf 994,5 hPa 0,0 l/m 0 min 0 min 0 W/m 42,8 km/h (6 Bft) 97,87 %
05.01.2018 00:22 8,1 C 7,8 C 6,1 C 79 % 0 lf 994,6 hPa 0,0 l/m 0 min 0 min 0 W/m 42,8 km/h (6 Bft) 95,74 %
05.01.2018 00:24 8,1 C 7,8 C 6,1 C 79 % 0 lf 994,5 hPa 0,0 l/m 0 min 0 min 0 W/m 40,6 km/h (6 Bft) 97,87 %
05.01.2018 00:26 8,1 C 7,8 C 6,1 C 79 % 0 lf 994,6 hPa 0,0 l/m 0 min 0 min 0 W/m 49,6 km/h (6 Bft) 100,00 %
05.01.2018 00:28 8,1 C 7,8 C 6,1 C 80 % 0 lf 994,7 hPa 0,0 l/m 0 min 0 min 0 W/m 42,8 km/h (6 Bft) 100,00 %
05.01.2018 00:30 8,1 C 7,8 C 6,1 C 80 % 0 lf 994,7 hPa 0,0 l/m 0 min 0 min 0 W/m 54,1 km/h (7 Bft) 97,87 %
05.01.2018 00:32 8,0 C 7,8 C 6,1 C 80 % 0 lf 994,8 hPa 0,0 l/m 0 min 0 min 0 W/m 47,3 km/h (6 Bft) 100,00 %
05.01.2018 00:34 8,0 C 7,8 C 6,1 C 80 % 0 lf 994,7 hPa 0,0 l/m 0 min 0 min 0 W/m 51,8 km/h (7 Bft) 100,00 %
05.01.2018 00:36 8,0 C 7,8 C 6,1 C 80 % 0 lf 994,9 hPa 0,0 l/m 0 min 0 min 0 W/m 45,1 km/h (6 Bft) 100,00 %
05.01.2018 00:38 7,9 C 7,2 C 6,1 C 80 % 0 lf 994,8 hPa 0,0 l/m 0 min 0 min 0 W/m 42,8 km/h (6 Bft) 97,87 %
05.01.2018 00:40 7,9 C 7,8 C 6,1 C 80 % 0 lf 994,7 hPa 0,0 l/m 0 min 0 min 0 W/m 58,6 km/h (7 Bft) 97,83 %
05.01.2018 00:42 7,9 C 7,8 C 6,1 C 80 % 0 lf 994,8 hPa 0,0 l/m 0 min 0 min 0 W/m 63,1 km/h (8 Bft) 100,00 %
05.01.2018 00:44 7,9 C 7,8 C 6,1 C 80 % 0 lf 994,8 hPa 0,0 l/m 0 min 0 min 0 W/m 51,8 km/h (7 Bft) 97,87 %
05.01.2018 00:46 7,9 C 7,8 C 6,1 C 80 % 0 lf 994,7 hPa 0,0 l/m 0 min 0 min 0 W/m 47,3 km/h (6 Bft) 100,00 %
05.01.2018 00:48 7,9 C 7,2 C 6,1 C 80 % 0 lf 994,8 hPa 0,0 l/m 0 min 0 min 0 W/m 47,3 km/h (6 Bft) 97,87 %
05.01.2018 00:50 7,9 C 7,8 C 6,1 C 80 % 0 lf 994,8 hPa 0,0 l/m 0 min 0 min 0 W/m 54,1 km/h (7 Bft) 97,87 %
05.01.2018 00:52 7,9 C 7,8 C 6,1 C 80 % 0 lf 994,6 hPa 0,0 l/m 0 min 0 min 0 W/m 47,3 km/h (6 Bft) 95,65 %
05.01.2018 00:54 7,9 C 7,8 C 6,1 C 80 % 0 lf 994,7 hPa 0,0 l/m 0 min 0 min 0 W/m 47,3 km/h (6 Bft) 97,87 %
05.01.2018 00:56 7,9 C 7,8 C 6,1 C 80 % 0 lf 994,6 hPa 0,0 l/m 0 min 0 min 0 W/m 60,8 km/h (7 Bft) 95,74 %
05.01.2018 00:58 7,9 C 7,8 C 6,1 C 80 % 0 lf 994,8 hPa 0,0 l/m 0 min 0 min 0 W/m 47,3 km/h (6 Bft) 95,74 %
05.01.2018 01:00 7,9 C 7,8 C 6,1 C 80 % 0 lf 994,8 hPa 0,0 l/m 0 min 0 min 0 W/m 40,6 km/h (6 Bft) 100,00 %
05.01.2018 01:02 7,9 C 7,8 C 6,1 C 80 % 0 lf 994,6 hPa 0,0 l/m 0 min 0 min 0 W/m 58,6 km/h (7 Bft) 100,00 %
05.01.2018 01:04 7,9 C 7,8 C 6,1 C 80 % 0 lf 994,8 hPa 0,0 l/m 0 min 0 min 0 W/m 47,3 km/h (6 Bft) 100,00 %
05.01.2018 01:06 7,9 C 7,8 C 6,1 C 80 % 0 lf 995,0 hPa 0,0 l/m 0 min 0 min 0 W/m 60,8 km/h (7 Bft) 93,62 %
05.01.2018 01:08 7,9 C 7,8 C 6,1 C 80 % 0 lf 994,8 hPa 0,0 l/m 0 min 0 min 0 W/m 42,8 km/h (6 Bft) 100,00 %
05.01.2018 01:10 7,9 C 7,8 C 6,1 C 80 % 0 lf 994,7 hPa 0,0 l/m 0 min 0 min 0 W/m 49,6 km/h (6 Bft) 100,00 %
05.01.2018 01:12 7,9 C 7,8 C 6,1 C 80 % 0 lf 994,8 hPa 0,0 l/m 0 min 0 min 0 W/m 47,3 km/h (6 Bft) 91,49 %
05.01.2018 01:14 7,9 C 7,8 C 6,1 C 80 % 0 lf 994,8 hPa 0,0 l/m 0 min 0 min 0 W/m 51,8 km/h (7 Bft) 95,74 %
05.01.2018 01:16 7,9 C 7,8 C 6,1 C 80 % 0 lf 994,7 hPa 0,0 l/m 0 min 0 min 0 W/m 36,0 km/h (5 Bft) 93,48 %
05.01.2018 01:18 7,9 C 7,8 C 6,1 C 80 % 0 lf 994,6 hPa 0,0 l/m 0 min 0 min 0 W/m 47,3 km/h (6 Bft) 95,74 %
05.01.2018 01:20 7,9 C 7,8 C 6,1 C 80 % 0 lf 994,7 hPa 0,0 l/m 0 min 0 min 0 W/m 56,3 km/h (7 Bft) 93,62 %
05.01.2018 01:22 7,9 C 7,8 C 6,1 C 80 % 0 lf 994,7 hPa 0,0 l/m 0 min 0 min 0 W/m 63,1 km/h (8 Bft) 91,49 %
05.01.2018 01:24 7,9 C 7,8 C 6,1 C 80 % 0 lf 994,7 hPa 0,0 l/m 0 min 0 min 0 W/m 38,3 km/h (5 Bft) 93,62 %
05.01.2018 01:26 7,9 C 7,8 C 6,1 C 81 % 0 lf 994,7 hPa 0,0 l/m 0 min 0 min 0 W/m 45,1 km/h (6 Bft) 95,65 %
05.01.2018 01:28 7,9 C 7,8 C 6,1 C 81 % 0 lf 994,7 hPa 0,0 l/m 0 min 0 min 0 W/m 40,6 km/h (6 Bft) 91,49 %
05.01.2018 01:30 7,9 C 7,8 C 6,1 C 81 % 0 lf 994,8 hPa 0,0 l/m 0 min 0 min 0 W/m 51,8 km/h (7 Bft) 95,74 %
05.01.2018 01:32 7,9 C 7,8 C 6,1 C 81 % 0 lf 994,8 hPa 0,0 l/m 0 min 0 min 0 W/m 51,8 km/h (7 Bft) 91,49 %
05.01.2018 01:34 7,9 C 7,8 C 6,1 C 81 % 0 lf 994,7 hPa 0,0 l/m 0 min 0 min 0 W/m 40,6 km/h (6 Bft) 95,74 %
05.01.2018 01:36 7,9 C 7,8 C 6,1 C 81 % 0 lf 994,7 hPa 0,0 l/m 0 min 0 min 0 W/m 47,3 km/h (6 Bft) 93,62 %
05.01.2018 01:38 7,9 C 7,8 C 6,1 C 81 % 0 lf 994,8 hPa 0,0 l/m 0 min 0 min 0 W/m 45,1 km/h (6 Bft) 93,48 %
05.01.2018 01:40 7,9 C 7,8 C 6,1 C 81 % 0 lf 995,0 hPa 0,0 l/m 0 min 0 min 0 W/m 47,3 km/h (6 Bft) 91,49 %
05.01.2018 01:42 7,9 C 7,8 C 6,1 C 81 % 0 lf 994,8 hPa 0,0 l/m 0 min 0 min 0 W/m 45,1 km/h (6 Bft) 91,49 %
05.01.2018 01:44 7,9 C 7,8 C 6,1 C 81 % 0 lf 995,0 hPa 0,0 l/m 0 min 0 min 0 W/m 42,8 km/h (6 Bft) 91,49 %
05.01.2018 01:46 7,9 C 7,8 C 6,1 C 81 % 0 lf 994,8 hPa 0,0 l/m 0 min 0 min 0 W/m 47,3 km/h (6 Bft) 91,49 %
05.01.2018 01:48 7,9 C 7,8 C 6,1 C 81 % 0 lf 994,9 hPa 0,0 l/m 0 min 0 min 0 W/m 42,8 km/h (6 Bft) 95,74 %
05.01.2018 01:50 7,9 C 7,8 C 6,1 C 81 % 0 lf 995,0 hPa 0,0 l/m 0 min 0 min 0 W/m 45,1 km/h (6 Bft) 93,48 %
05.01.2018 01:52 7,9 C 7,8 C 6,7 C 81 % 0 lf 995,1 hPa 0,0 l/m 0 min 0 min 0 W/m 36,0 km/h (5 Bft) 95,74 %
05.01.2018 01:54 7,9 C 7,8 C 6,1 C 82 % 0 lf 995,0 hPa 0,0 l/m 0 min 0 min 0 W/m 36,0 km/h (5 Bft) 95,74 %
05.01.2018 01:56 7,9 C 7,8 C 6,7 C 82 % 0 lf 995,2 hPa 0,0 l/m 0 min 0 min 0 W/m 47,3 km/h (6 Bft) 97,83 %
05.01.2018 01:58 8,0 C 7,8 C 6,1 C 82 % 0 lf 995,2 hPa 0,0 l/m 0 min 0 min 0 W/m 42,8 km/h (6 Bft) 97,87 %
05.01.2018 02:00 8,0 C 7,8 C 6,1 C 82 % 0 lf 995,2 hPa 0,0 l/m 0 min 0 min 0 W/m 40,6 km/h (6 Bft) 95,74 %
05.01.2018 02:02 8,0 C 7,8 C 6,1 C 82 % 0 lf 995,2 hPa 0,0 l/m 0 min 0 min 0 W/m 45,1 km/h (6 Bft) 95,65 %
05.01.2018 02:04 8,0 C 7,8 C 6,1 C 82 % 0 lf 995,2 hPa 0,0 l/m 0 min 0 min 0 W/m 38,3 km/h (5 Bft) 97,87 %
05.01.2018 02:06 8,0 C 7,8 C 6,7 C 82 % 0 lf 995,1 hPa 0,0 l/m 0 min 0 min 0 W/m 45,1 km/h (6 Bft) 100,00 %
05.01.2018 02:08 8,0 C 7,8 C 6,7 C 82 % 0 lf 995,2 hPa 0,0 l/m 0 min 0 min 0 W/m 42,8 km/h (6 Bft) 95,74 %
05.01.2018 02:10 8,0 C 7,8 C 6,7 C 83 % 0 lf 995,2 hPa 0,0 l/m 0 min 0 min 0 W/m 38,3 km/h (5 Bft) 93,62 %
05.01.2018 02:12 8,1 C 7,8 C 6,7 C 83 % 0 lf 995,5 hPa 0,0 l/m 0 min 0 min 0 W/m 56,3 km/h (7 Bft) 95,74 %
05.01.2018 02:14 8,1 C 7,8 C 6,7 C 83 % 0 lf 995,2 hPa 0,0 l/m 0 min 0 min 0 W/m 38,3 km/h (5 Bft) 95,65 %
05.01.2018 02:16 8,1 C 7,8 C 6,7 C 83 % 0 lf 995,1 hPa 0,0 l/m 0 min 0 min 0 W/m 36,0 km/h (5 Bft) 95,74 %
05.01.2018 02:18 8,1 C 7,8 C 6,7 C 83 % 0 lf 995,2 hPa 0,0 l/m 0 min 0 min 0 W/m 40,6 km/h (6 Bft) 93,62 %
05.01.2018 02:20 8,1 C 7,8 C 6,7 C 83 % 0 lf 995,0 hPa 0,0 l/m 0 min 0 min 0 W/m 31,5 km/h (5 Bft) 97,87 %
05.01.2018 02:22 8,1 C 7,8 C 6,7 C 83 % 0 lf 995,1 hPa 0,0 l/m 0 min 0 min 0 W/m 40,6 km/h (6 Bft) 97,87 %
05.01.2018 02:24 8,1 C 7,8 C 6,7 C 83 % 0 lf 995,0 hPa 0,0 l/m 0 min 0 min 0 W/m 27,0 km/h (4 Bft) 96,36 %
05.01.2018 02:26 8,1 C 7,8 C 6,7 C 83 % 0 lf 995,1 hPa 0,0 l/m 0 min 0 min 0 W/m 36,0 km/h (5 Bft) 95,65 %
05.01.2018 02:28 8,1 C 7,8 C 6,7 C 83 % 0 lf 995,1 hPa 0,0 l/m 0 min 0 min 0 W/m 42,8 km/h (6 Bft) 93,62 %
05.01.2018 02:30 8,1 C 7,8 C 6,7 C 83 % 0 lf 995,1 hPa 0,0 l/m 0 min 0 min 0 W/m 47,3 km/h (6 Bft) 93,62 %
05.01.2018 02:32 8,1 C 7,8 C 6,7 C 83 % 0 lf 995,2 hPa 0,0 l/m 0 min 0 min 0 W/m 38,3 km/h (5 Bft) 97,87 %
05.01.2018 02:34 8,2 C 7,8 C 6,7 C 83 % 0 lf 995,2 hPa 0,0 l/m 0 min 0 min 0 W/m 51,8 km/h (7 Bft) 95,74 %
05.01.2018 02:36 8,2 C 7,8 C 6,7 C 83 % 0 lf 995,2 hPa 0,0 l/m 0 min 0 min 0 W/m 31,5 km/h (5 Bft) 95,74 %
05.01.2018 02:38 8,2 C 7,8 C 6,7 C 84 % 0 lf 995,0 hPa 0,0 l/m 0 min 0 min 0 W/m 45,1 km/h (6 Bft) 95,65 %
05.01.2018 02:40 8,2 C 7,8 C 6,7 C 84 % 0 lf 995,1 hPa 0,0 l/m 0 min 0 min 0 W/m 33,8 km/h (5 Bft) 97,87 %
05.01.2018 02:42 8,2 C 7,8 C 6,7 C 84 % 0 lf 995,1 hPa 0,0 l/m 0 min 0 min 0 W/m 40,6 km/h (6 Bft) 97,87 %
05.01.2018 02:44 8,2 C 8,3 C 6,7 C 84 % 0 lf 995,1 hPa 0,0 l/m 0 min 0 min 0 W/m 42,8 km/h (6 Bft) 97,87 %
05.01.2018 02:46 8,2 C 7,8 C 6,7 C 84 % 0 lf 995,1 hPa 0,0 l/m 0 min 2 min 0 W/m 31,5 km/h (5 Bft) 97,87 %
05.01.2018 02:48 8,2 C 7,8 C 6,7 C 84 % 0 lf 994,9 hPa 0,0 l/m 0 min 0 min 0 W/m 29,3 km/h (5 Bft) 95,74 %
05.01.2018 02:50 8,2 C 7,8 C 6,1 C 84 % 0 lf 995,0 hPa 0,0 l/m 0 min 0 min 0 W/m 33,8 km/h (5 Bft) 97,83 %
05.01.2018 02:52 8,2 C 7,8 C 6,1 C 84 % 0 lf 995,0 hPa 0,0 l/m 0 min 0 min 0 W/m 33,8 km/h (5 Bft) 94,74 %
05.01.2018 02:54 8,2 C 7,8 C 6,1 C 84 % 0 lf 995,0 hPa 0,0 l/m 0 min 0 min 0 W/m 40,6 km/h (6 Bft) 97,92 %
05.01.2018 02:56 8,2 C 7,8 C 6,1 C 84 % 0 lf 994,9 hPa 0,0 l/m 0 min 0 min 0 W/m 33,8 km/h (5 Bft) 97,87 %
05.01.2018 02:58 8,2 C 7,8 C 6,7 C 84 % 0 lf 995,1 hPa 0,0 l/m 0 min 0 min 0 W/m 31,5 km/h (5 Bft) 97,87 %
05.01.2018 03:00 8,2 C 7,8 C 6,7 C 84 % 0 lf 995,0 hPa 0,0 l/m 0 min 0 min 0 W/m 38,3 km/h (5 Bft) 91,30 %
05.01.2018 03:02 8,2 C 7,8 C 6,7 C 84 % 0 lf 995,0 hPa 0,0 l/m 0 min 0 min 0 W/m 38,3 km/h (5 Bft) 97,87 %
05.01.2018 03:04 8,2 C 8,3 C 6,7 C 84 % 0 lf 995,1 hPa 0,0 l/m 0 min 0 min 0 W/m 56,3 km/h (7 Bft) 93,62 %
05.01.2018 03:06 8,2 C 8,3 C 6,7 C 83 % 0 lf 995,0 hPa 0,0 l/m 0 min 0 min 0 W/m 31,5 km/h (5 Bft) 97,87 %
05.01.2018 03:08 8,2 C 8,3 C 6,7 C 83 % 0 lf 994,9 hPa 0,0 l/m 0 min 0 min 0 W/m 33,8 km/h (5 Bft) 97,87 %
05.01.2018 03:10 8,3 C 8,3 C 6,7 C 83 % 0 lf 994,9 hPa 0,0 l/m 0 min 0 min 0 W/m 45,1 km/h (6 Bft) 91,49 %
05.01.2018 03:12 8,3 C 8,3 C 6,7 C 83 % 0 lf 994,8 hPa 0,0 l/m 0 min 0 min 0 W/m 27,0 km/h (4 Bft) 95,65 %
05.01.2018 03:14 8,3 C 8,3 C 6,7 C 83 % 0 lf 994,8 hPa 0,0 l/m 0 min 0 min 0 W/m 22,5 km/h (4 Bft) 97,87 %
05.01.2018 03:16 8,3 C 8,3 C 6,7 C 83 % 0 lf 994,7 hPa 0,0 l/m 0 min 0 min 0 W/m 22,5 km/h (4 Bft) 95,74 %
05.01.2018 03:18 8,3 C 8,3 C 6,7 C 83 % 0 lf 994,6 hPa 0,0 l/m 0 min 0 min 0 W/m 42,8 km/h (6 Bft) 97,87 %
05.01.2018 03:20 8,3 C 7,8 C 6,7 C 83 % 0 lf 994,6 hPa 0,0 l/m 0 min 0 min 0 W/m 29,3 km/h (5 Bft) 97,87 %
05.01.2018 03:22 8,3 C 7,8 C 6,7 C 83 % 0 lf 994,6 hPa 0,0 l/m 0 min 0 min 0 W/m 36,0 km/h (5 Bft) 95,74 %
05.01.2018 03:24 8,3 C 7,8 C 6,7 C 83 % 0 lf 994,6 hPa 0,0 l/m 0 min 0 min 0 W/m 24,8 km/h (4 Bft) 96,30 %
05.01.2018 03:26 8,3 C 7,8 C 6,7 C 83 % 0 lf 994,6 hPa 0,0 l/m 0 min 0 min 0 W/m 15,8 km/h (3 Bft) 97,87 %
05.01.2018 03:28 8,3 C 7,8 C 6,7 C 83 % 0 lf 994,5 hPa 0,0 l/m 0 min 0 min 0 W/m 22,5 km/h (4 Bft) 93,62 %
05.01.2018 03:30 8,3 C 8,3 C 6,7 C 83 % 0 lf 994,4 hPa 0,0 l/m 0 min 0 min 0 W/m 42,8 km/h (6 Bft) 97,87 %
05.01.2018 03:32 8,3 C 8,3 C 6,7 C 83 % 0 lf 994,4 hPa 0,0 l/m 0 min 0 min 0 W/m 36,0 km/h (5 Bft) 97,87 %
05.01.2018 03:34 8,3 C 8,3 C 6,7 C 83 % 0 lf 994,4 hPa 0,0 l/m 0 min 0 min 0 W/m 31,5 km/h (5 Bft) 97,87 %
05.01.2018 03:36 8,3 C 8,3 C 6,7 C 83 % 0 lf 994,5 hPa 0,0 l/m 0 min 0 min 0 W/m 20,3 km/h (4 Bft) 95,65 %
05.01.2018 03:38 8,3 C 7,8 C 6,7 C 83 % 0 lf 994,5 hPa 0,0 l/m 0 min 0 min 0 W/m 24,8 km/h (4 Bft) 97,87 %
05.01.2018 03:40 8,3 C 8,3 C 6,7 C 83 % 0 lf 994,7 hPa 0,0 l/m 0 min 0 min 0 W/m 38,3 km/h (5 Bft) 95,74 %
05.01.2018 03:42 8,4 C 8,3 C 6,7 C 83 % 0 lf 994,6 hPa 0,0 l/m 0 min 0 min 0 W/m 31,5 km/h (5 Bft) 93,62 %
05.01.2018 03:44 8,4 C 8,3 C 6,7 C 83 % 0 lf 994,6 hPa 0,0 l/m 0 min 0 min 0 W/m 31,5 km/h (5 Bft) 95,74 %
05.01.2018 03:46 8,4 C 8,3 C 6,7 C 83 % 3 lf 994,6 hPa 0,0 l/m 0 min 0 min 0 W/m 29,3 km/h (5 Bft) 97,87 %
05.01.2018 03:48 8,4 C 8,3 C 6,7 C 83 % 4 lf 994,6 hPa 0,0 l/m 0 min 2 min 0 W/m 27,0 km/h (4 Bft) 100,00 %
05.01.2018 03:50 8,4 C 8,3 C 6,7 C 83 % 1 lf 994,7 hPa 0,0 l/m 0 min 0 min 0 W/m 29,3 km/h (5 Bft) 93,62 %
05.01.2018 03:52 8,4 C 8,3 C 6,7 C 83 % 2 lf 994,6 hPa 0,0 l/m 0 min 0 min 0 W/m 24,8 km/h (4 Bft) 97,87 %
05.01.2018 03:54 8,4 C 8,3 C 6,7 C 83 % 2 lf 994,6 hPa 0,0 l/m 0 min 0 min 0 W/m 27,0 km/h (4 Bft) 97,37 %
05.01.2018 03:56 8,4 C 7,8 C 6,7 C 83 % 3 lf 994,6 hPa 0,0 l/m 0 min 2 min 0 W/m 29,3 km/h (5 Bft) 93,62 %
05.01.2018 03:58 8,4 C 7,8 C 6,1 C 83 % 4 lf 994,6 hPa 0,0 l/m 0 min 0 min 0 W/m 27,0 km/h (4 Bft) 95,74 %
05.01.2018 04:00 8,3 C 7,8 C 6,1 C 83 % 2 lf 994,4 hPa 0,0 l/m 0 min 0 min 0 W/m 22,5 km/h (4 Bft) 97,87 %
05.01.2018 04:05 8,3 C 7,8 C 5,6 C 84 % 15 lf 994,6 hPa 0,0 l/m 0 min 5 min 0 W/m 40,6 km/h (6 Bft) 94,87 %
05.01.2018 04:06 8,3 C 7,2 C 5,6 C 84 % 15 lf 994,6 hPa 0,0 l/m 0 min 1 min 0 W/m 33,8 km/h (5 Bft) 100,00 %
05.01.2018 04:08 8,3 C 7,2 C 5,6 C 84 % 15 lf 994,3 hPa 0,0 l/m 0 min 2 min 0 W/m 33,8 km/h (5 Bft) 97,87 %
05.01.2018 04:10 8,2 C 7,2 C 5,0 C 84 % 15 lf 994,2 hPa 0,0 l/m 0 min 2 min 0 W/m 22,5 km/h (4 Bft) 97,87 %
05.01.2018 04:12 8,2 C 6,7 C 5,0 C 84 % 15 lf 994,3 hPa 0,2 l/m 0 min 2 min 0 W/m 36,0 km/h (5 Bft) 95,74 %
05.01.2018 04:14 8,1 C 6,7 C 5,0 C 85 % 15 lf 994,3 hPa 0,0 l/m 0 min 2 min 0 W/m 31,5 km/h (5 Bft) 97,83 %
05.01.2018 04:16 8,1 C 6,7 C 5,0 C 85 % 15 lf 994,2 hPa 0,0 l/m 0 min 2 min 0 W/m 29,3 km/h (5 Bft) 97,87 %
05.01.2018 04:18 8,1 C 6,7 C 5,0 C 86 % 15 lf 994,2 hPa 0,0 l/m 0 min 2 min 0 W/m 27,0 km/h (4 Bft) 97,87 %
05.01.2018 04:20 8,0 C 6,7 C 5,0 C 86 % 15 lf 994,3 hPa 0,0 l/m 0 min 2 min 0 W/m 20,3 km/h (4 Bft) 97,87 %
05.01.2018 04:22 7,9 C 6,7 C 5,0 C 87 % 15 lf 994,4 hPa 0,0 l/m 0 min 2 min 0 W/m 27,0 km/h (4 Bft) 97,87 %
05.01.2018 04:24 7,9 C 6,7 C 5,0 C 87 % 15 lf 994,4 hPa 0,0 l/m 0 min 2 min 0 W/m 24,8 km/h (4 Bft) 97,87 %
05.01.2018 04:26 7,9 C 6,7 C 5,0 C 87 % 15 lf 994,4 hPa 0,0 l/m 0 min 2 min 0 W/m 22,5 km/h (4 Bft) 95,65 %
05.01.2018 04:28 7,8 C 6,7 C 5,0 C 87 % 15 lf 994,5 hPa 0,0 l/m 0 min 2 min 0 W/m 29,3 km/h (5 Bft) 97,87 %
05.01.2018 04:30 7,8 C 6,7 C 5,0 C 88 % 15 lf 994,5 hPa 0,0 l/m 0 min 2 min 0 W/m 29,3 km/h (5 Bft) 97,87 %
05.01.2018 04:32 7,7 C 6,1 C 5,0 C 88 % 15 lf 994,4 hPa 0,0 l/m 0 min 2 min 0 W/m 29,3 km/h (5 Bft) 95,74 %
05.01.2018 04:34 7,7 C 6,1 C 5,0 C 88 % 15 lf 994,2 hPa 0,0 l/m 0 min 2 min 0 W/m 29,3 km/h (5 Bft) 97,87 %
05.01.2018 04:36 7,7 C 6,1 C 5,0 C 88 % 15 lf 994,3 hPa 0,0 l/m 0 min 2 min 0 W/m 27,0 km/h (4 Bft) 97,87 %
05.01.2018 04:38 7,6 C 6,1 C 5,0 C 88 % 15 lf 994,2 hPa 0,0 l/m 0 min 0 min 0 W/m 18,0 km/h (3 Bft) 100,00 %
05.01.2018 04:40 7,6 C 6,1 C 5,0 C 88 % 15 lf 994,4 hPa 0,0 l/m 0 min 0 min 0 W/m 15,8 km/h (3 Bft) 100,00 %
05.01.2018 04:42 7,6 C 6,1 C 5,0 C 89 % 15 lf 994,4 hPa 0,0 l/m 0 min 2 min 0 W/m 18,0 km/h (3 Bft) 100,00 %
05.01.2018 04:44 7,5 C 6,1 C 5,0 C 88 % 15 lf 994,3 hPa 0,0 l/m 0 min 2 min 0 W/m 22,5 km/h (4 Bft) 95,74 %
05.01.2018 04:46 7,4 C 6,1 C 5,0 C 89 % 15 lf 994,2 hPa 0,2 l/m 0 min 2 min 0 W/m 20,3 km/h (4 Bft) 100,00 %
05.01.2018 04:48 7,4 C 6,1 C 5,0 C 89 % 15 lf 994,0 hPa 0,0 l/m 0 min 2 min 0 W/m 20,3 km/h (4 Bft) 100,00 %
05.01.2018 04:50 7,4 C 6,1 C 5,0 C 89 % 15 lf 993,9 hPa 0,0 l/m 0 min 2 min 0 W/m 22,5 km/h (4 Bft) 97,87 %
05.01.2018 04:52 7,3 C 6,1 C 5,0 C 89 % 15 lf 993,8 hPa 0,0 l/m 0 min 0 min 0 W/m 22,5 km/h (4 Bft) 97,87 %
05.01.2018 04:54 7,3 C 6,1 C 4,4 C 89 % 15 lf 993,8 hPa 0,0 l/m 0 min 0 min 0 W/m 22,5 km/h (4 Bft) 97,87 %
05.01.2018 04:56 7,2 C 6,1 C 4,4 C 89 % 15 lf 993,6 hPa 0,0 l/m 0 min 0 min 0 W/m 24,8 km/h (4 Bft) 100,00 %
05.01.2018 04:58 7,2 C 6,1 C 4,4 C 89 % 15 lf 993,7 hPa 0,0 l/m 0 min 0 min 0 W/m 22,5 km/h (4 Bft) 97,87 %
05.01.2018 05:00 7,1 C 6,1 C 4,4 C 90 % 15 lf 993,7 hPa 0,0 l/m 0 min 2 min 0 W/m 24,8 km/h (4 Bft) 97,83 %
05.01.2018 05:02 7,1 C 6,1 C 4,4 C 90 % 15 lf 993,7 hPa 0,0 l/m 0 min 0 min 0 W/m 24,8 km/h (4 Bft) 93,62 %
05.01.2018 05:04 7,0 C 5,6 C 4,4 C 90 % 15 lf 993,7 hPa 0,0 l/m 0 min 0 min 0 W/m 15,8 km/h (3 Bft) 97,87 %
05.01.2018 05:06 7,0 C 5,6 C 4,4 C 90 % 15 lf 993,6 hPa 0,0 l/m 0 min 0 min 0 W/m 20,3 km/h (4 Bft) 97,87 %
05.01.2018 05:08 6,9 C 5,6 C 4,4 C 90 % 15 lf 993,7 hPa 0,0 l/m 0 min 0 min 0 W/m 29,3 km/h (5 Bft) 95,74 %
05.01.2018 05:10 6,9 C 5,6 C 4,4 C 90 % 15 lf 993,7 hPa 0,0 l/m 0 min 0 min 0 W/m 20,3 km/h (4 Bft) 97,87 %
05.01.2018 05:12 6,9 C 5,6 C 4,4 C 90 % 15 lf 993,7 hPa 0,0 l/m 0 min 0 min 0 W/m 18,0 km/h (3 Bft) 97,83 %
05.01.2018 05:14 6,8 C 5,6 C 4,4 C 90 % 15 lf 993,7 hPa 0,0 l/m 0 min 0 min 0 W/m 22,5 km/h (4 Bft) 100,00 %
05.01.2018 05:16 6,8 C 5,6 C 4,4 C 90 % 15 lf 993,7 hPa 0,0 l/m 0 min 0 min 0 W/m 18,0 km/h (3 Bft) 95,74 %
05.01.2018 05:18 6,8 C 5,6 C 4,4 C 91 % 15 lf 993,7 hPa 0,0 l/m 0 min 0 min 0 W/m 24,8 km/h (4 Bft) 91,49 %
05.01.2018 05:20 6,8 C 6,1 C 4,4 C 91 % 15 lf 993,7 hPa 0,0 l/m 0 min 0 min 0 W/m 22,5 km/h (4 Bft) 93,62 %
05.01.2018 05:22 6,7 C 6,1 C 4,4 C 91 % 15 lf 993,7 hPa 0,0 l/m 0 min 0 min 0 W/m 15,8 km/h (3 Bft) 91,49 %
05.01.2018 05:24 6,7 C 6,1 C 4,4 C 91 % 15 lf 993,6 hPa 0,0 l/m 0 min 0 min 0 W/m 18,0 km/h (3 Bft) 91,30 %
05.01.2018 05:26 6,7 C 6,1 C 5,0 C 92 % 15 lf 993,6 hPa 0,0 l/m 0 min 0 min 0 W/m 18,0 km/h (3 Bft) 93,62 %
05.01.2018 05:28 6,8 C 6,1 C 5,0 C 92 % 15 lf 993,6 hPa 0,0 l/m 0 min 0 min 0 W/m 33,8 km/h (5 Bft) 91,49 %
05.01.2018 05:30 6,8 C 6,1 C 5,0 C 92 % 15 lf 993,6 hPa 0,0 l/m 0 min 0 min 0 W/m 18,0 km/h (3 Bft) 93,62 %
05.01.2018 05:32 6,8 C 6,1 C 5,0 C 92 % 15 lf 993,5 hPa 0,0 l/m 0 min 2 min 0 W/m 33,8 km/h (5 Bft) 91,49 %
05.01.2018 05:34 6,8 C 6,1 C 5,0 C 92 % 15 lf 993,6 hPa 0,0 l/m 0 min 0 min 0 W/m 22,5 km/h (4 Bft) 95,74 %
05.01.2018 05:35 6,8 C 6,1 C 5,0 C 92 % 15 lf 993,6 hPa 0,0 l/m 0 min 0 min 0 W/m 33,8 km/h (5 Bft) 95,61 %
05.01.2018 05:42 6,9 C 6,7 C 5,0 C 93 % 15 lf 993,3 hPa 0,0 l/m 0 min 5 min 0 W/m 27,0 km/h (4 Bft) 97,56 %
05.01.2018 05:44 6,9 C 6,7 C 5,0 C 93 % 14 lf 993,3 hPa 0,0 l/m 0 min 0 min 0 W/m 27,0 km/h (4 Bft) 95,74 %
05.01.2018 05:46 7,0 C 6,7 C 5,0 C 93 % 14 lf 993,3 hPa 0,0 l/m 0 min 0 min 0 W/m 24,8 km/h (4 Bft) 95,74 %
05.01.2018 05:48 7,1 C 6,7 C 5,0 C 93 % 13 lf 993,3 hPa 0,0 l/m 0 min 0 min 0 W/m 22,5 km/h (4 Bft) 95,74 %
05.01.2018 05:50 7,1 C 6,7 C 5,0 C 93 % 13 lf 993,3 hPa 0,0 l/m 0 min 0 min 0 W/m 24,8 km/h (4 Bft) 93,62 %
05.01.2018 05:52 7,1 C 6,7 C 5,6 C 94 % 12 lf 993,3 hPa 0,0 l/m 0 min 0 min 0 W/m 22,5 km/h (4 Bft) 93,62 %
05.01.2018 05:54 7,1 C 6,7 C 5,6 C 94 % 11 lf 993,3 hPa 0,0 l/m 0 min 0 min 0 W/m 24,8 km/h (4 Bft) 95,65 %
05.01.2018 05:56 7,2 C 6,7 C 5,6 C 94 % 10 lf 993,4 hPa 0,0 l/m 0 min 2 min 0 W/m 31,5 km/h (5 Bft) 93,62 %
05.01.2018 05:58 7,2 C 7,2 C 5,6 C 94 % 9 lf 993,5 hPa 0,0 l/m 0 min 2 min 0 W/m 31,5 km/h (5 Bft) 93,62 %
05.01.2018 06:00 7,2 C 7,2 C 5,6 C 94 % 6 lf 993,3 hPa 0,0 l/m 0 min 0 min 0 W/m 22,5 km/h (4 Bft) 97,87 %
05.01.2018 06:02 7,3 C 7,2 C 5,6 C 94 % 4 lf 993,3 hPa 0,0 l/m 0 min 0 min 0 W/m 22,5 km/h (4 Bft) 93,62 %
05.01.2018 06:04 7,3 C 7,2 C 5,6 C 94 % 3 lf 993,1 hPa 0,0 l/m 0 min 0 min 0 W/m 22,5 km/h (4 Bft) 93,62 %
05.01.2018 06:06 7,4 C 7,2 C 5,6 C 94 % 2 lf 993,4 hPa 0,0 l/m 0 min 0 min 0 W/m 24,8 km/h (4 Bft) 95,65 %
05.01.2018 06:08 7,4 C 7,2 C 5,6 C 94 % 1 lf 993,3 hPa 0,0 l/m 0 min 0 min 0 W/m 29,3 km/h (5 Bft) 95,74 %
05.01.2018 06:10 7,4 C 7,2 C 5,6 C 94 % 0 lf 993,3 hPa 0,0 l/m 0 min 0 min 0 W/m 33,8 km/h (5 Bft) 95,74 %
05.01.2018 06:12 7,5 C 7,8 C 5,6 C 94 % 0 lf 993,3 hPa 0,0 l/m 0 min 0 min 0 W/m 36,0 km/h (5 Bft) 93,62 %
05.01.2018 06:14 7,6 C 7,8 C 5,6 C 94 % 0 lf 993,3 hPa 0,0 l/m 0 min 2 min 0 W/m 36,0 km/h (5 Bft) 97,87 %
05.01.2018 06:16 7,6 C 7,8 C 6,1 C 94 % 0 lf 993,3 hPa 0,0 l/m 0 min 0 min 0 W/m 31,5 km/h (5 Bft) 95,65 %
05.01.2018 06:18 7,7 C 7,8 C 6,1 C 94 % 0 lf 993,5 hPa 0,0 l/m 0 min 0 min 0 W/m 29,3 km/h (5 Bft) 97,87 %
05.01.2018 06:20 7,7 C 7,8 C 6,1 C 94 % 0 lf 993,5 hPa 0,0 l/m 0 min 0 min 0 W/m 38,3 km/h (5 Bft) 93,62 %
05.01.2018 06:22 7,8 C 7,8 C 6,1 C 95 % 0 lf 993,4 hPa 0,0 l/m 0 min 0 min 0 W/m 33,8 km/h (5 Bft) 95,74 %
05.01.2018 06:24 7,8 C 7,8 C 6,1 C 94 % 0 lf 993,4 hPa 0,0 l/m 0 min 2 min 0 W/m 33,8 km/h (5 Bft) 93,62 %
05.01.2018 06:26 7,9 C 8,3 C 6,1 C 94 % 0 lf 993,5 hPa 0,0 l/m 0 min 0 min 0 W/m 42,8 km/h (6 Bft) 95,74 %
05.01.2018 06:28 8,0 C 8,3 C 6,1 C 94 % 0 lf 993,5 hPa 0,0 l/m 0 min 0 min 0 W/m 33,8 km/h (5 Bft) 93,48 %
05.01.2018 06:30 8,1 C 8,3 C 6,7 C 94 % 0 lf 993,7 hPa 0,0 l/m 0 min 2 min 0 W/m 49,6 km/h (6 Bft) 95,74 %
05.01.2018 06:32 8,2 C 8,3 C 6,7 C 94 % 1 lf 993,6 hPa 0,0 l/m 0 min 2 min 0 W/m 40,6 km/h (6 Bft) 97,87 %
05.01.2018 06:34 8,2 C 8,3 C 6,7 C 94 % 1 lf 993,7 hPa 0,0 l/m 0 min 0 min 0 W/m 31,5 km/h (5 Bft) 95,74 %
05.01.2018 06:36 8,2 C 8,3 C 6,1 C 94 % 3 lf 993,7 hPa 0,0 l/m 0 min 2 min 0 W/m 22,5 km/h (4 Bft) 97,87 %
05.01.2018 06:38 8,3 C 8,3 C 6,1 C 94 % 2 lf 993,7 hPa 0,0 l/m 0 min 0 min 0 W/m 31,5 km/h (5 Bft) 93,62 %
05.01.2018 06:40 8,3 C 8,3 C 6,7 C 94 % 1 lf 993,8 hPa 0,0 l/m 0 min 2 min 0 W/m 56,3 km/h (7 Bft) 95,65 %
05.01.2018 06:42 8,4 C 8,3 C 6,7 C 93 % 1 lf 993,8 hPa 0,0 l/m 0 min 0 min 0 W/m 40,6 km/h (6 Bft) 97,87 %
05.01.2018 06:44 8,4 C 8,3 C 6,7 C 93 % 1 lf 993,8 hPa 0,0 l/m 0 min 0 min 0 W/m 45,1 km/h (6 Bft) 97,87 %
05.01.2018 06:46 8,4 C 8,3 C 6,7 C 93 % 1 lf 993,8 hPa 0,0 l/m 0 min 0 min 0 W/m 36,0 km/h (5 Bft) 95,74 %
05.01.2018 06:48 8,4 C 8,3 C 6,1 C 93 % 0 lf 993,7 hPa 0,0 l/m 0 min 2 min 0 W/m 40,6 km/h (6 Bft) 95,83 %
05.01.2018 06:50 8,4 C 8,3 C 6,7 C 93 % 0 lf 993,8 hPa 0,0 l/m 0 min 0 min 0 W/m 45,1 km/h (6 Bft) 97,87 %
05.01.2018 06:52 8,4 C 8,3 C 6,7 C 93 % 0 lf 993,9 hPa 0,0 l/m 0 min 0 min 0 W/m 40,6 km/h (6 Bft) 97,83 %
05.01.2018 06:54 8,4 C 8,3 C 6,7 C 93 % 1 lf 994,0 hPa 0,0 l/m 0 min 2 min 0 W/m 38,3 km/h (5 Bft) 93,62 %
05.01.2018 06:56 8,5 C 8,3 C 6,7 C 92 % 4 lf 994,0 hPa 0,0 l/m 0 min 2 min 0 W/m 40,6 km/h (6 Bft) 95,74 %
05.01.2018 06:58 8,5 C 8,3 C 6,7 C 92 % 11 lf 993,8 hPa 0,0 l/m 0 min 2 min 0 W/m 45,1 km/h (6 Bft) 93,62 %
05.01.2018 07:00 8,6 C 8,3 C 6,7 C 92 % 12 lf 994,1 hPa 0,0 l/m 0 min 2 min 0 W/m 42,8 km/h (6 Bft) 93,62 %
05.01.2018 07:02 8,6 C 8,3 C 6,7 C 92 % 14 lf 994,1 hPa 0,0 l/m 0 min 2 min 0 W/m 38,3 km/h (5 Bft) 95,74 %
05.01.2018 07:04 8,6 C 8,3 C 6,1 C 92 % 15 lf 994,2 hPa 0,0 l/m 0 min 2 min 0 W/m 40,6 km/h (6 Bft) 95,65 %
05.01.2018 07:06 8,5 C 7,8 C 6,1 C 92 % 15 lf 994,1 hPa 0,0 l/m 0 min 2 min 0 W/m 38,3 km/h (5 Bft) 95,74 %
05.01.2018 07:08 8,5 C 7,8 C 6,1 C 91 % 15 lf 994,2 hPa 0,0 l/m 0 min 2 min 0 W/m 47,3 km/h (6 Bft) 95,74 %
05.01.2018 07:10 8,5 C 7,8 C 6,1 C 91 % 14 lf 994,2 hPa 0,0 l/m 0 min 2 min 0 W/m 36,0 km/h (5 Bft) 97,87 %
05.01.2018 07:12 8,4 C 8,3 C 6,1 C 91 % 13 lf 994,3 hPa 0,0 l/m 0 min 2 min 0 W/m 38,3 km/h (5 Bft) 91,49 %
05.01.2018 07:14 8,4 C 8,3 C 6,1 C 91 % 12 lf 994,3 hPa 0,0 l/m 0 min 2 min 0 W/m 45,1 km/h (6 Bft) 95,74 %
05.01.2018 07:16 8,4 C 8,3 C 6,1 C 91 % 10 lf 994,3 hPa 0,0 l/m 0 min 2 min 0 W/m 36,0 km/h (5 Bft) 93,48 %
05.01.2018 07:18 8,4 C 8,3 C 6,1 C 91 % 8 lf 994,3 hPa 0,0 l/m 0 min 0 min 0 W/m 38,3 km/h (5 Bft) 97,92 %
05.01.2018 07:20 8,4 C 8,3 C 6,1 C 91 % 4 lf 994,4 hPa 0,0 l/m 0 min 0 min 0 W/m 36,0 km/h (5 Bft) 97,87 %
05.01.2018 07:22 8,4 C 7,8 C 6,1 C 91 % 3 lf 994,4 hPa 0,0 l/m 0 min 0 min 0 W/m 36,0 km/h (5 Bft) 93,62 %
05.01.2018 07:24 8,4 C 7,8 C 6,1 C 91 % 2 lf 994,5 hPa 0,0 l/m 0 min 0 min 0 W/m 38,3 km/h (5 Bft) 97,87 %
05.01.2018 07:26 8,3 C 7,8 C 6,1 C 91 % 1 lf 994,4 hPa 0,0 l/m 0 min 0 min 0 W/m 27,0 km/h (4 Bft) 97,83 %
05.01.2018 07:28 8,3 C 7,8 C 6,1 C 91 % 0 lf 994,5 hPa 0,0 l/m 0 min 0 min 0 W/m 24,8 km/h (4 Bft) 97,87 %
05.01.2018 07:30 8,3 C 7,8 C 6,1 C 91 % 0 lf 994,6 hPa 0,0 l/m 0 min 0 min 0 W/m 31,5 km/h (5 Bft) 100,00 %
05.01.2018 07:32 8,3 C 7,8 C 6,1 C 91 % 0 lf 994,5 hPa 0,0 l/m 0 min 0 min 0 W/m 33,8 km/h (5 Bft) 100,00 %
05.01.2018 07:34 8,3 C 7,8 C 6,1 C 91 % 0 lf 994,4 hPa 0,0 l/m 0 min 0 min 0 W/m 29,3 km/h (5 Bft) 97,87 %
05.01.2018 07:36 8,3 C 7,8 C 6,1 C 91 % 0 lf 994,4 hPa 0,0 l/m 0 min 0 min 0 W/m 24,8 km/h (4 Bft) 97,87 %
05.01.2018 07:38 8,3 C 7,8 C 6,1 C 91 % 0 lf 994,5 hPa 0,0 l/m 0 min 0 min 0 W/m 38,3 km/h (5 Bft) 97,83 %
05.01.2018 07:40 8,3 C 7,8 C 6,1 C 91 % 0 lf 994,5 hPa 0,0 l/m 0 min 0 min 0 W/m 27,0 km/h (4 Bft) 95,74 %
05.01.2018 07:42 8,3 C 7,8 C 6,1 C 91 % 0 lf 994,5 hPa 0,0 l/m 0 min 0 min 0 W/m 27,0 km/h (4 Bft) 97,87 %
05.01.2018 07:44 8,2 C 7,8 C 6,1 C 91 % 0 lf 994,5 hPa 0,0 l/m 0 min 0 min 0 W/m 27,0 km/h (4 Bft) 97,87 %
05.01.2018 07:46 8,2 C 7,8 C 6,1 C 91 % 0 lf 994,5 hPa 0,0 l/m 0 min 0 min 0 W/m 22,5 km/h (4 Bft) 97,87 %
05.01.2018 07:48 8,2 C 7,8 C 6,1 C 91 % 0 lf 994,6 hPa 0,0 l/m 0 min 0 min 0 W/m 18,0 km/h (3 Bft) 95,74 %
05.01.2018 07:50 8,2 C 7,8 C 6,1 C 91 % 0 lf 994,6 hPa 0,0 l/m 0 min 0 min 0 W/m 20,3 km/h (4 Bft) 100,00 %
05.01.2018 07:52 8,2 C 7,8 C 6,1 C 91 % 0 lf 994,6 hPa 0,0 l/m 0 min 0 min 0 W/m 24,8 km/h (4 Bft) 100,00 %
05.01.2018 07:54 8,1 C 7,8 C 6,1 C 91 % 0 lf 994,7 hPa 0,0 l/m 0 min 0 min 0 W/m 27,0 km/h (4 Bft) 100,00 %
05.01.2018 07:56 8,1 C 7,8 C 6,1 C 91 % 0 lf 994,7 hPa 0,0 l/m 0 min 0 min 0 W/m 22,5 km/h (4 Bft) 100,00 %
05.01.2018 07:58 8,1 C 7,8 C 6,1 C 91 % 0 lf 994,6 hPa 0,0 l/m 0 min 0 min 0 W/m 18,0 km/h (3 Bft) 97,87 %
05.01.2018 08:00 8,1 C 7,8 C 6,1 C 91 % 0 lf 994,6 hPa 0,0 l/m 0 min 0 min 0 W/m 20,3 km/h (4 Bft) 97,87 %
05.01.2018 08:02 8,1 C 7,8 C 5,6 C 91 % 0 lf 994,6 hPa 0,0 l/m 0 min 0 min 0 W/m 18,0 km/h (3 Bft) 100,00 %
05.01.2018 08:04 8,1 C 7,2 C 5,6 C 91 % 0 lf 994,5 hPa 0,0 l/m 0 min 0 min 0 W/m 15,8 km/h (3 Bft) 97,87 %
05.01.2018 08:06 8,0 C 7,2 C 5,6 C 91 % 0 lf 994,6 hPa 0,0 l/m 0 min 0 min 0 W/m 27,0 km/h (4 Bft) 97,87 %
05.01.2018 08:08 8,0 C 7,2 C 5,6 C 91 % 0 lf 994,6 hPa 0,0 l/m 0 min 0 min 0 W/m 24,8 km/h (4 Bft) 95,74 %
05.01.2018 08:10 8,0 C 7,2 C 5,6 C 91 % 0 lf 994,5 hPa 0,0 l/m 0 min 0 min 0 W/m 20,3 km/h (4 Bft) 95,74 %
05.01.2018 08:12 7,9 C 7,2 C 5,6 C 91 % 0 lf 994,6 hPa 0,0 l/m 0 min 0 min 0 W/m 27,0 km/h (4 Bft) 97,83 %
05.01.2018 08:14 7,9 C 7,8 C 5,6 C 91 % 0 lf 994,6 hPa 0,0 l/m 0 min 0 min 0 W/m 33,8 km/h (5 Bft) 97,87 %
05.01.2018 08:16 7,9 C 7,8 C 5,6 C 91 % 0 lf 994,6 hPa 0,0 l/m 0 min 0 min 0 W/m 24,8 km/h (4 Bft) 95,74 %
05.01.2018 08:18 7,9 C 7,8 C 6,1 C 92 % 0 lf 994,6 hPa 0,0 l/m 0 min 0 min 0 W/m 27,0 km/h (4 Bft) 97,87 %
05.01.2018 08:20 7,9 C 7,8 C 5,6 C 91 % 0 lf 994,6 hPa 0,0 l/m 0 min 0 min 0 W/m 29,3 km/h (5 Bft) 95,74 %
05.01.2018 08:22 7,9 C 7,8 C 5,6 C 91 % 0 lf 994,8 hPa 0,0 l/m 0 min 0 min 0 W/m 27,0 km/h (4 Bft) 97,87 %
05.01.2018 08:24 7,9 C 7,8 C 6,1 C 91 % 0 lf 994,8 hPa 0,0 l/m 0 min 0 min 0 W/m 29,3 km/h (5 Bft) 97,83 %
05.01.2018 08:26 7,9 C 7,8 C 5,6 C 91 % 0 lf 994,8 hPa 0,0 l/m 0 min 0 min 0 W/m 29,3 km/h (5 Bft) 95,74 %
05.01.2018 08:28 7,9 C 7,8 C 5,6 C 91 % 0 lf 994,8 hPa 0,0 l/m 0 min 0 min 0 W/m 29,3 km/h (5 Bft) 95,74 %
05.01.2018 08:30 7,9 C 7,8 C 5,6 C 91 % 0 lf 995,0 hPa 0,0 l/m 0 min 0 min 0 W/m 31,5 km/h (5 Bft) 97,87 %
05.01.2018 08:32 7,9 C 7,8 C 5,6 C 90 % 0 lf 995,0 hPa 0,0 l/m 0 min 0 min 0 W/m 29,3 km/h (5 Bft) 97,87 %
05.01.2018 08:34 7,9 C 7,8 C 5,6 C 90 % 0 lf 994,9 hPa 0,0 l/m 0 min 0 min 0 W/m 29,3 km/h (5 Bft) 97,87 %
05.01.2018 08:36 7,9 C 7,8 C 5,6 C 90 % 0 lf 995,0 hPa 0,0 l/m 0 min 0 min 1 W/m 22,5 km/h (4 Bft) 97,83 %
05.01.2018 08:38 7,9 C 7,8 C 5,6 C 90 % 0 lf 995,1 hPa 0,0 l/m 0 min 0 min 5 W/m 31,5 km/h (5 Bft) 95,74 %
05.01.2018 08:40 7,9 C 7,8 C 5,6 C 90 % 0 lf 995,2 hPa 0,0 l/m 0 min 0 min 5 W/m 29,3 km/h (5 Bft) 97,87 %
05.01.2018 08:42 7,9 C 7,8 C 5,6 C 90 % 0 lf 995,2 hPa 0,0 l/m 0 min 0 min 5 W/m 33,8 km/h (5 Bft) 97,87 %
05.01.2018 08:44 7,9 C 7,8 C 5,6 C 90 % 0 lf 995,1 hPa 0,0 l/m 0 min 0 min 6 W/m 24,8 km/h (4 Bft) 93,62 %
05.01.2018 08:46 7,9 C 7,8 C 5,6 C 89 % 0 lf 995,1 hPa 0,0 l/m 0 min 0 min 8 W/m 31,5 km/h (5 Bft) 95,74 %
05.01.2018 08:48 7,9 C 7,8 C 5,6 C 89 % 0 lf 995,2 hPa 0,0 l/m 0 min 0 min 10 W/m 29,3 km/h (5 Bft) 95,65 %
05.01.2018 08:50 7,9 C 7,8 C 5,6 C 89 % 0 lf 995,3 hPa 0,0 l/m 0 min 0 min 13 W/m 31,5 km/h (5 Bft) 95,74 %
05.01.2018 08:52 7,9 C 7,8 C 5,6 C 89 % 0 lf 995,3 hPa 0,0 l/m 0 min 0 min 16 W/m 29,3 km/h (5 Bft) 95,74 %
05.01.2018 08:54 7,9 C 7,8 C 6,1 C 89 % 0 lf 995,4 hPa 0,0 l/m 0 min 0 min 18 W/m 33,8 km/h (5 Bft) 95,74 %
05.01.2018 08:56 7,9 C 7,8 C 6,1 C 89 % 0 lf 995,4 hPa 0,0 l/m 2 min 0 min 20 W/m 27,0 km/h (4 Bft) 87,23 %
05.01.2018 08:58 7,9 C 7,8 C 6,1 C 88 % 0 lf 995,5 hPa 0,0 l/m 2 min 0 min 23 W/m 29,3 km/h (5 Bft) 93,62 %
05.01.2018 09:00 7,9 C 7,8 C 6,1 C 88 % 0 lf 995,5 hPa 0,0 l/m 2 min 0 min 25 W/m 27,0 km/h (4 Bft) 93,48 %
05.01.2018 09:02 7,9 C 7,8 C 6,1 C 88 % 0 lf 995,5 hPa 0,0 l/m 2 min 0 min 27 W/m 24,8 km/h (4 Bft) 93,62 %
05.01.2018 09:04 7,9 C 7,8 C 6,1 C 88 % 0 lf 995,6 hPa 0,0 l/m 2 min 0 min 28 W/m 22,5 km/h (4 Bft) 91,49 %
05.01.2018 09:06 7,9 C 7,8 C 6,1 C 88 % 0 lf 995,6 hPa 0,0 l/m 2 min 0 min 28 W/m 29,3 km/h (5 Bft) 95,74 %
05.01.2018 09:08 7,9 C 7,8 C 6,1 C 88 % 0 lf 995,6 hPa 0,0 l/m 2 min 0 min 29 W/m 22,5 km/h (4 Bft) 93,62 %
05.01.2018 09:10 7,9 C 7,8 C 6,1 C 88 % 0 lf 995,5 hPa 0,0 l/m 0 min 0 min 28 W/m 29,3 km/h (5 Bft) 93,62 %
05.01.2018 09:12 7,9 C 7,8 C 6,1 C 88 % 0 lf 995,6 hPa 0,0 l/m 0 min 0 min 30 W/m 27,0 km/h (4 Bft) 95,65 %
05.01.2018 09:14 7,9 C 7,8 C 6,1 C 88 % 0 lf 995,6 hPa 0,0 l/m 0 min 0 min 32 W/m 27,0 km/h (4 Bft) 95,74 %
05.01.2018 09:16 7,9 C 7,8 C 6,1 C 88 % 0 lf 995,6 hPa 0,0 l/m 0 min 0 min 34 W/m 20,3 km/h (4 Bft) 95,74 %
05.01.2018 09:18 7,9 C 7,8 C 6,1 C 88 % 0 lf 995,7 hPa 0,0 l/m 0 min 0 min 36 W/m 33,8 km/h (5 Bft) 95,35 %
05.01.2018 09:20 7,9 C 7,8 C 6,1 C 88 % 0 lf 995,8 hPa 0,0 l/m 0 min 0 min 37 W/m 24,8 km/h (4 Bft) 93,62 %
05.01.2018 09:22 7,9 C 7,8 C 6,1 C 88 % 0 lf 995,7 hPa 0,0 l/m 0 min 0 min 37 W/m 36,0 km/h (5 Bft) 91,49 %
05.01.2018 09:24 7,9 C 7,8 C 6,1 C 88 % 0 lf 995,8 hPa 0,0 l/m 0 min 0 min 34 W/m 27,0 km/h (4 Bft) 93,62 %
05.01.2018 09:26 7,9 C 7,8 C 6,1 C 88 % 0 lf 995,7 hPa 0,0 l/m 0 min 0 min 33 W/m 29,3 km/h (5 Bft) 95,74 %
05.01.2018 09:28 7,9 C 7,8 C 6,7 C 88 % 0 lf 995,8 hPa 0,0 l/m 0 min 0 min 36 W/m 27,0 km/h (4 Bft) 95,74 %
05.01.2018 09:30 7,9 C 7,8 C 6,7 C 88 % 0 lf 995,7 hPa 0,0 l/m 0 min 0 min 42 W/m 29,3 km/h (5 Bft) 95,65 %
05.01.2018 09:32 7,9 C 8,3 C 6,7 C 88 % 0 lf 995,7 hPa 0,0 l/m 0 min 0 min 45 W/m 36,0 km/h (5 Bft) 91,49 %
05.01.2018 09:34 7,9 C 8,3 C 6,7 C 88 % 0 lf 995,8 hPa 0,0 l/m 0 min 0 min 49 W/m 38,3 km/h (5 Bft) 95,74 %
05.01.2018 09:36 7,9 C 8,3 C 6,7 C 87 % 0 lf 995,8 hPa 0,0 l/m 0 min 0 min 53 W/m 22,5 km/h (4 Bft) 95,74 %
05.01.2018 09:38 7,9 C 8,3 C 6,7 C 87 % 0 lf 995,8 hPa 0,0 l/m 0 min 0 min 54 W/m 29,3 km/h (5 Bft) 95,74 %
05.01.2018 09:40 7,9 C 8,3 C 6,7 C 87 % 0 lf 995,8 hPa 0,0 l/m 0 min 0 min 57 W/m 29,3 km/h (5 Bft) 95,74 %
05.01.2018 09:42 8,0 C 8,3 C 6,7 C 87 % 0 lf 995,9 hPa 0,0 l/m 0 min 0 min 61 W/m 22,5 km/h (4 Bft) 93,48 %
05.01.2018 09:44 8,0 C 8,3 C 6,7 C 87 % 0 lf 996,0 hPa 0,0 l/m 0 min 0 min 63 W/m 20,3 km/h (4 Bft) 95,74 %
05.01.2018 09:46 8,0 C 8,3 C 6,7 C 87 % 0 lf 996,0 hPa 0,0 l/m 0 min 0 min 64 W/m 31,5 km/h (5 Bft) 97,87 %
05.01.2018 09:48 8,0 C 8,3 C 6,7 C 87 % 0 lf 996,0 hPa 0,0 l/m 0 min 0 min 64 W/m 31,5 km/h (5 Bft) 97,87 %
05.01.2018 09:50 8,1 C 8,3 C 6,7 C 87 % 0 lf 995,9 hPa 0,0 l/m 0 min 0 min 62 W/m 29,3 km/h (5 Bft) 97,92 %
05.01.2018 09:52 8,1 C 8,3 C 6,7 C 87 % 0 lf 995,8 hPa 0,0 l/m 0 min 0 min 62 W/m 24,8 km/h (4 Bft) 97,83 %
05.01.2018 09:54 8,1 C 8,3 C 6,7 C 87 % 0 lf 995,8 hPa 0,0 l/m 0 min 0 min 63 W/m 24,8 km/h (4 Bft) 95,74 %
05.01.2018 09:56 8,1 C 8,3 C 6,7 C 87 % 0 lf 995,9 hPa 0,0 l/m 0 min 0 min 68 W/m 18,0 km/h (3 Bft) 97,87 %
05.01.2018 09:58 8,1 C 8,3 C 6,7 C 87 % 0 lf 995,9 hPa 0,0 l/m 0 min 0 min 71 W/m 20,3 km/h (4 Bft) 93,62 %
05.01.2018 10:00 8,1 C 8,3 C 6,7 C 87 % 0 lf 995,9 hPa 0,0 l/m 0 min 0 min 76 W/m 22,5 km/h (4 Bft) 97,87 %
05.01.2018 10:02 8,1 C 8,3 C 6,7 C 87 % 0 lf 995,8 hPa 0,0 l/m 0 min 0 min 79 W/m 24,8 km/h (4 Bft) 91,49 %
05.01.2018 10:04 8,1 C 8,3 C 6,7 C 87 % 0 lf 995,8 hPa 0,0 l/m 0 min 0 min 79 W/m 18,0 km/h (3 Bft) 95,65 %
05.01.2018 10:06 8,2 C 8,3 C 7,2 C 87 % 0 lf 995,9 hPa 0,0 l/m 0 min 0 min 82 W/m 20,3 km/h (4 Bft) 95,74 %
05.01.2018 10:08 8,1 C 8,3 C 7,2 C 87 % 0 lf 995,9 hPa 0,0 l/m 0 min 0 min 83 W/m 22,5 km/h (4 Bft) 97,87 %
05.01.2018 10:10 8,2 C 8,9 C 7,2 C 87 % 0 lf 995,9 hPa 0,0 l/m 0 min 0 min 84 W/m 27,0 km/h (4 Bft) 97,87 %
05.01.2018 10:12 8,2 C 8,9 C 7,2 C 87 % 0 lf 995,9 hPa 0,0 l/m 0 min 0 min 86 W/m 24,8 km/h (4 Bft) 97,87 %
05.01.2018 10:14 8,2 C 8,9 C 7,2 C 87 % 0 lf 995,9 hPa 0,0 l/m 0 min 0 min 91 W/m 20,3 km/h (4 Bft) 97,87 %
05.01.2018 10:16 8,2 C 8,9 C 7,2 C 87 % 0 lf 995,9 hPa 0,0 l/m 2 min 0 min 97 W/m 29,3 km/h (5 Bft) 95,65 %
05.01.2018 10:18 8,2 C 8,9 C 7,2 C 87 % 0 lf 996,0 hPa 0,0 l/m 2 min 0 min 106 W/m 27,0 km/h (4 Bft) 97,87 %
05.01.2018 10:20 8,2 C 8,9 C 7,2 C 87 % 0 lf 996,0 hPa 0,0 l/m 2 min 0 min 102 W/m 27,0 km/h (4 Bft) 95,74 %
05.01.2018 10:22 8,2 C 8,9 C 7,2 C 87 % 0 lf 996,1 hPa 0,0 l/m 0 min 0 min 92 W/m 24,8 km/h (4 Bft) 95,74 %
05.01.2018 10:24 8,2 C 8,9 C 7,2 C 87 % 0 lf 996,0 hPa 0,0 l/m 2 min 0 min 102 W/m 29,3 km/h (5 Bft) 100,00 %
05.01.2018 10:26 8,2 C 9,4 C 7,2 C 87 % 0 lf 996,0 hPa 0,0 l/m 2 min 0 min 127 W/m 27,0 km/h (4 Bft) 100,00 %
05.01.2018 10:28 8,3 C 9,4 C 7,2 C 87 % 0 lf 996,0 hPa 0,0 l/m 2 min 0 min 124 W/m 22,5 km/h (4 Bft) 100,00 %
05.01.2018 10:30 8,3 C 9,4 C 7,2 C 87 % 0 lf 995,9 hPa 0,0 l/m 2 min 0 min 128 W/m 24,8 km/h (4 Bft) 100,00 %
05.01.2018 10:32 8,3 C 9,4 C 7,2 C 87 % 0 lf 995,9 hPa 0,0 l/m 2 min 0 min 111 W/m 24,8 km/h (4 Bft) 97,87 %
05.01.2018 10:34 8,3 C 9,4 C 7,2 C 87 % 0 lf 996,0 hPa 0,0 l/m 0 min 0 min 104 W/m 27,0 km/h (4 Bft) 97,87 %
05.01.2018 10:36 8,4 C 9,4 C 7,2 C 87 % 0 lf 995,9 hPa 0,0 l/m 0 min 0 min 102 W/m 29,3 km/h (5 Bft) 95,74 %
05.01.2018 10:38 8,4 C 9,4 C 7,2 C 87 % 0 lf 995,9 hPa 0,0 l/m 0 min 0 min 100 W/m 22,5 km/h (4 Bft) 100,00 %
05.01.2018 10:40 8,4 C 9,4 C 7,2 C 87 % 0 lf 995,9 hPa 0,0 l/m 0 min 0 min 100 W/m 24,8 km/h (4 Bft) 100,00 %
05.01.2018 10:42 8,4 C 8,9 C 7,2 C 87 % 0 lf 996,0 hPa 0,0 l/m 0 min 0 min 95 W/m 24,8 km/h (4 Bft) 97,87 %
05.01.2018 10:44 8,4 C 8,9 C 7,2 C 87 % 0 lf 995,9 hPa 0,0 l/m 0 min 0 min 92 W/m 20,3 km/h (4 Bft) 100,00 %
05.01.2018 10:46 8,4 C 8,9 C 7,2 C 87 % 0 lf 996,0 hPa 0,0 l/m 0 min 0 min 93 W/m 22,5 km/h (4 Bft) 97,87 %
05.01.2018 10:48 8,4 C 8,9 C 7,2 C 87 % 0 lf 996,0 hPa 0,0 l/m 0 min 0 min 96 W/m 24,8 km/h (4 Bft) 93,62 %
05.01.2018 10:50 8,4 C 8,9 C 7,2 C 87 % 0 lf 996,1 hPa 0,0 l/m 0 min 0 min 97 W/m 22,5 km/h (4 Bft) 95,65 %
05.01.2018 10:52 8,5 C 8,9 C 7,2 C 87 % 0 lf 996,1 hPa 0,0 l/m 0 min 0 min 93 W/m 27,0 km/h (4 Bft) 97,87 %
05.01.2018 10:54 8,4 C 8,9 C 7,2 C 87 % 0 lf 996,0 hPa 0,0 l/m 0 min 0 min 86 W/m 31,5 km/h (5 Bft) 97,87 %
05.01.2018 10:56 8,4 C 8,9 C 7,2 C 87 % 0 lf 996,1 hPa 0,0 l/m 0 min 0 min 82 W/m 27,0 km/h (4 Bft) 97,87 %
05.01.2018 10:58 8,4 C 8,9 C 7,2 C 87 % 0 lf 996,2 hPa 0,0 l/m 0 min 0 min 84 W/m 22,5 km/h (4 Bft) 95,74 %
05.01.2018 11:00 8,4 C 8,9 C 7,2 C 87 % 0 lf 996,2 hPa 0,0 l/m 0 min 0 min 83 W/m 18,0 km/h (3 Bft) 95,74 %
05.01.2018 11:02 8,4 C 8,9 C 7,2 C 87 % 0 lf 996,1 hPa 0,0 l/m 0 min 0 min 80 W/m 18,0 km/h (3 Bft) 95,65 %
05.01.2018 11:04 8,4 C 8,9 C 7,2 C 87 % 0 lf 996,2 hPa 0,0 l/m 0 min 0 min 86 W/m 24,8 km/h (4 Bft) 95,74 %
05.01.2018 11:06 8,4 C 8,9 C 7,8 C 87 % 0 lf 996,2 hPa 0,0 l/m 0 min 0 min 91 W/m 15,8 km/h (3 Bft) 93,62 %
05.01.2018 11:08 8,4 C 8,9 C 7,8 C 87 % 0 lf 996,3 hPa 0,0 l/m 0 min 0 min 98 W/m 13,5 km/h (3 Bft) 95,92 %
05.01.2018 11:10 8,4 C 8,9 C 7,8 C 87 % 0 lf 996,2 hPa 0,0 l/m 0 min 0 min 96 W/m 24,8 km/h (4 Bft) 93,62 %
05.01.2018 11:12 8,4 C 8,9 C 7,8 C 87 % 0 lf 996,2 hPa 0,0 l/m 0 min 0 min 92 W/m 20,3 km/h (4 Bft) 93,62 %
05.01.2018 11:14 8,4 C 8,9 C 7,8 C 87 % 0 lf 996,3 hPa 0,0 l/m 0 min 0 min 96 W/m 20,3 km/h (4 Bft) 95,74 %
05.01.2018 11:16 8,4 C 8,9 C 7,8 C 87 % 0 lf 996,3 hPa 0,0 l/m 0 min 0 min 98 W/m 22,5 km/h (4 Bft) 95,74 %
05.01.2018 11:18 8,5 C 8,9 C 7,8 C 87 % 0 lf 996,3 hPa 0,0 l/m 0 min 0 min 93 W/m 22,5 km/h (4 Bft) 91,49 %
05.01.2018 11:20 8,5 C 8,9 C 7,8 C 87 % 0 lf 996,3 hPa 0,0 l/m 0 min 0 min 95 W/m 22,5 km/h (4 Bft) 93,62 %
05.01.2018 11:22 8,5 C 8,9 C 7,8 C 87 % 0 lf 996,3 hPa 0,0 l/m 0 min 0 min 103 W/m 18,0 km/h (3 Bft) 93,62 %
05.01.2018 11:24 8,5 C 8,9 C 7,8 C 87 % 0 lf 996,3 hPa 0,0 l/m 0 min 0 min 101 W/m 15,8 km/h (3 Bft) 97,83 %
05.01.2018 11:26 8,5 C 8,9 C 7,8 C 88 % 0 lf 996,3 hPa 0,0 l/m 0 min 0 min 94 W/m 22,5 km/h (4 Bft) 97,87 %
05.01.2018 11:28 8,5 C 8,9 C 7,8 C 87 % 0 lf 996,4 hPa 0,0 l/m 0 min 0 min 90 W/m 27,0 km/h (4 Bft) 91,49 %
05.01.2018 11:30 8,5 C 8,9 C 7,8 C 87 % 0 lf 996,3 hPa 0,0 l/m 0 min 0 min 93 W/m 20,3 km/h (4 Bft) 97,87 %
05.01.2018 11:32 8,6 C 8,9 C 7,8 C 87 % 0 lf 996,2 hPa 0,0 l/m 0 min 0 min 95 W/m 20,3 km/h (4 Bft) 95,74 %
05.01.2018 11:34 8,6 C 8,9 C 7,8 C 87 % 0 lf 996,1 hPa 0,0 l/m 0 min 0 min 100 W/m 22,5 km/h (4 Bft) 95,74 %
05.01.2018 11:36 8,6 C 9,4 C 7,8 C 87 % 0 lf 996,2 hPa 0,0 l/m 0 min 0 min 104 W/m 20,3 km/h (4 Bft) 97,83 %
05.01.2018 11:38 8,6 C 9,4 C 7,8 C 87 % 0 lf 996,2 hPa 0,0 l/m 0 min 0 min 100 W/m 15,8 km/h (3 Bft) 95,74 %
05.01.2018 11:40 8,6 C 9,4 C 7,8 C 87 % 0 lf 996,3 hPa 0,0 l/m 0 min 0 min 95 W/m 22,5 km/h (4 Bft) 97,87 %
05.01.2018 11:42 8,6 C 9,4 C 7,8 C 87 % 0 lf 996,3 hPa 0,0 l/m 0 min 0 min 99 W/m 20,3 km/h (4 Bft) 95,74 %
05.01.2018 11:44 8,6 C 9,4 C 7,8 C 87 % 0 lf 996,3 hPa 0,0 l/m 0 min 0 min 96 W/m 31,5 km/h (5 Bft) 93,62 %
05.01.2018 11:46 8,7 C 8,9 C 7,8 C 87 % 0 lf 996,2 hPa 0,0 l/m 0 min 0 min 94 W/m 29,3 km/h (5 Bft) 95,74 %
05.01.2018 11:48 8,7 C 9,4 C 7,8 C 87 % 0 lf 996,3 hPa 0,0 l/m 0 min 0 min 104 W/m 24,8 km/h (4 Bft) 95,65 %
05.01.2018 11:50 8,7 C 9,4 C 7,8 C 87 % 0 lf 996,3 hPa 0,0 l/m 0 min 0 min 109 W/m 24,8 km/h (4 Bft) 95,74 %
05.01.2018 11:52 8,7 C 9,4 C 7,8 C 87 % 0 lf 996,3 hPa 0,0 l/m 0 min 0 min 110 W/m 20,3 km/h (4 Bft) 97,87 %
05.01.2018 11:54 8,7 C 9,4 C 7,8 C 87 % 0 lf 996,3 hPa 0,0 l/m 0 min 0 min 115 W/m 29,3 km/h (5 Bft) 93,62 %
05.01.2018 11:56 8,7 C 9,4 C 8,3 C 87 % 0 lf 996,3 hPa 0,0 l/m 0 min 0 min 122 W/m 20,3 km/h (4 Bft) 97,87 %
05.01.2018 11:58 8,7 C 9,4 C 8,3 C 87 % 0 lf 996,3 hPa 0,0 l/m 0 min 0 min 127 W/m 20,3 km/h (4 Bft) 95,74 %
05.01.2018 12:00 8,7 C 9,4 C 8,3 C 87 % 0 lf 996,3 hPa 0,0 l/m 0 min 0 min 121 W/m 22,5 km/h (4 Bft) 97,83 %
05.01.2018 12:02 8,8 C 9,4 C 8,3 C 87 % 0 lf 996,4 hPa 0,0 l/m 0 min 0 min 115 W/m 22,5 km/h (4 Bft) 95,74 %
05.01.2018 12:04 8,8 C 9,4 C 8,3 C 87 % 0 lf 996,4 hPa 0,0 l/m 0 min 0 min 109 W/m 29,3 km/h (5 Bft) 100,00 %
05.01.2018 12:06 8,8 C 9,4 C 8,3 C 87 % 0 lf 996,4 hPa 0,0 l/m 0 min 0 min 106 W/m 24,8 km/h (4 Bft) 97,87 %
05.01.2018 12:08 8,8 C 9,4 C 8,3 C 87 % 0 lf 996,3 hPa 0,0 l/m 0 min 0 min 118 W/m 27,0 km/h (4 Bft) 94,44 %
05.01.2018 12:10 8,8 C 9,4 C 8,3 C 87 % 0 lf 996,4 hPa 0,0 l/m 0 min 0 min 128 W/m 27,0 km/h (4 Bft) 95,65 %
05.01.2018 12:12 8,9 C 10,0 C 8,3 C 87 % 0 lf 996,4 hPa 0,0 l/m 0 min 0 min 128 W/m 13,5 km/h (3 Bft) 97,87 %
05.01.2018 12:14 8,9 C 10,0 C 8,3 C 87 % 0 lf 996,3 hPa 0,0 l/m 0 min 0 min 129 W/m 20,3 km/h (4 Bft) 95,74 %
05.01.2018 12:16 8,9 C 10,0 C 8,3 C 87 % 0 lf 996,4 hPa 0,0 l/m 0 min 0 min 129 W/m 20,3 km/h (4 Bft) 97,87 %
05.01.2018 12:18 8,9 C 10,0 C 8,3 C 87 % 0 lf 996,3 hPa 0,0 l/m 0 min 0 min 118 W/m 22,5 km/h (4 Bft) 91,49 %
05.01.2018 12:20 8,9 C 10,0 C 8,3 C 87 % 0 lf 996,4 hPa 0,0 l/m 0 min 0 min 109 W/m 15,8 km/h (3 Bft) 97,87 %
05.01.2018 12:22 8,9 C 10,0 C 8,3 C 86 % 0 lf 996,4 hPa 0,0 l/m 0 min 0 min 109 W/m 15,8 km/h (3 Bft) 97,83 %
05.01.2018 12:24 9,0 C 10,0 C 8,3 C 86 % 0 lf 996,4 hPa 0,0 l/m 0 min 0 min 107 W/m 18,0 km/h (3 Bft) 95,74 %
05.01.2018 12:26 9,0 C 10,0 C 8,3 C 86 % 0 lf 996,4 hPa 0,0 l/m 0 min 0 min 110 W/m 20,3 km/h (4 Bft) 93,62 %
05.01.2018 12:28 9,0 C 10,0 C 8,3 C 86 % 0 lf 996,3 hPa 0,0 l/m 0 min 0 min 106 W/m 24,8 km/h (4 Bft) 97,87 %
05.01.2018 12:30 9,0 C 9,4 C 8,3 C 86 % 0 lf 996,4 hPa 0,0 l/m 0 min 0 min 98 W/m 27,0 km/h (4 Bft) 100,00 %
05.01.2018 12:32 9,0 C 9,4 C 8,3 C 86 % 0 lf 996,3 hPa 0,0 l/m 0 min 0 min 102 W/m 27,0 km/h (4 Bft) 100,00 %
05.01.2018 12:34 9,1 C 10,0 C 8,3 C 86 % 0 lf 996,3 hPa 0,0 l/m 0 min 0 min 108 W/m 15,8 km/h (3 Bft) 100,00 %
05.01.2018 12:36 9,1 C 10,0 C 8,3 C 86 % 0 lf 996,4 hPa 0,0 l/m 0 min 0 min 108 W/m 15,8 km/h (3 Bft) 97,87 %
05.01.2018 12:38 9,1 C 10,0 C 8,3 C 86 % 0 lf 996,4 hPa 0,0 l/m 0 min 0 min 111 W/m 15,8 km/h (3 Bft) 97,87 %
05.01.2018 12:40 9,1 C 10,0 C 8,9 C 86 % 0 lf 996,3 hPa 0,0 l/m 0 min 0 min 114 W/m 13,5 km/h (3 Bft) 97,87 %
05.01.2018 12:42 9,1 C 10,0 C 8,9 C 86 % 0 lf 996,3 hPa 0,0 l/m 0 min 0 min 119 W/m 11,3 km/h (2 Bft) 100,00 %
05.01.2018 12:44 9,1 C 10,0 C 8,9 C 86 % 0 lf 996,2 hPa 0,0 l/m 0 min 0 min 120 W/m 15,8 km/h (3 Bft) 95,74 %
05.01.2018 12:46 9,1 C 10,0 C 8,9 C 86 % 0 lf 996,2 hPa 0,0 l/m 0 min 0 min 113 W/m 13,5 km/h (3 Bft) 100,00 %
05.01.2018 12:48 9,1 C 10,0 C 8,9 C 86 % 0 lf 996,3 hPa 0,0 l/m 0 min 0 min 112 W/m 13,5 km/h (3 Bft) 100,00 %
05.01.2018 12:50 9,2 C 10,0 C 8,9 C 85 % 0 lf 996,3 hPa 0,0 l/m 0 min 0 min 122 W/m 18,0 km/h (3 Bft) 97,87 %
05.01.2018 12:52 9,2 C 10,0 C 8,9 C 85 % 0 lf 996,4 hPa 0,0 l/m 0 min 0 min 123 W/m 22,5 km/h (4 Bft) 97,87 %
05.01.2018 12:54 9,2 C 10,0 C 8,9 C 85 % 0 lf 996,4 hPa 0,0 l/m 0 min 0 min 116 W/m 22,5 km/h (4 Bft) 93,62 %
05.01.2018 12:56 9,2 C 10,0 C 8,9 C 85 % 0 lf 996,4 hPa 0,0 l/m 0 min 0 min 119 W/m 20,3 km/h (4 Bft) 93,62 %
05.01.2018 12:58 9,2 C 10,0 C 8,9 C 85 % 0 lf 996,4 hPa 0,0 l/m 0 min 0 min 140 W/m 15,8 km/h (3 Bft) 95,65 %
05.01.2018 13:00 9,2 C 10,6 C 8,9 C 85 % 0 lf 996,4 hPa 0,0 l/m 0 min 0 min 153 W/m 11,3 km/h (2 Bft) 91,49 %
05.01.2018 13:02 9,2 C 10,6 C 8,9 C 85 % 0 lf 996,4 hPa 0,0 l/m 0 min 0 min 135 W/m 22,5 km/h (4 Bft) 95,74 %
05.01.2018 13:04 9,2 C 10,6 C 8,9 C 85 % 0 lf 996,4 hPa 0,0 l/m 0 min 0 min 121 W/m 15,8 km/h (3 Bft) 95,74 %
05.01.2018 13:06 9,3 C 10,0 C 8,9 C 85 % 0 lf 996,4 hPa 0,0 l/m 0 min 0 min 115 W/m 24,8 km/h (4 Bft) 95,74 %
05.01.2018 13:08 9,3 C 10,6 C 8,9 C 85 % 0 lf 996,4 hPa 0,0 l/m 0 min 0 min 118 W/m 11,3 km/h (2 Bft) 93,48 %
05.01.2018 13:10 9,3 C 10,0 C 8,9 C 85 % 0 lf 996,4 hPa 0,0 l/m 0 min 0 min 122 W/m 27,0 km/h (4 Bft) 91,49 %
05.01.2018 13:12 9,3 C 10,0 C 8,9 C 85 % 0 lf 996,3 hPa 0,0 l/m 0 min 0 min 110 W/m 24,8 km/h (4 Bft) 95,74 %
05.01.2018 13:14 9,3 C 10,0 C 8,9 C 85 % 0 lf 996,4 hPa 0,0 l/m 0 min 0 min 105 W/m 22,5 km/h (4 Bft) 93,62 %
05.01.2018 13:16 9,3 C 10,0 C 8,9 C 85 % 0 lf 996,3 hPa 0,0 l/m 0 min 0 min 102 W/m 20,3 km/h (4 Bft) 95,74 %
05.01.2018 13:18 9,3 C 10,0 C 8,9 C 85 % 0 lf 996,2 hPa 0,0 l/m 0 min 0 min 105 W/m 22,5 km/h (4 Bft) 95,74 %
05.01.2018 13:20 9,3 C 10,0 C 8,9 C 85 % 0 lf 996,1 hPa 0,0 l/m 0 min 0 min 107 W/m 13,5 km/h (3 Bft) 95,65 %
05.01.2018 13:22 9,3 C 10,0 C 8,9 C 85 % 0 lf 996,0 hPa 0,0 l/m 0 min 0 min 112 W/m 22,5 km/h (4 Bft) 95,74 %
05.01.2018 13:24 9,3 C 10,0 C 8,9 C 85 % 0 lf 996,0 hPa 0,0 l/m 0 min 0 min 115 W/m 20,3 km/h (4 Bft) 93,62 %
05.01.2018 13:26 9,3 C 10,0 C 8,9 C 85 % 0 lf 996,0 hPa 0,0 l/m 0 min 0 min 121 W/m 18,0 km/h (3 Bft) 97,87 %
05.01.2018 13:28 9,3 C 10,0 C 8,9 C 85 % 0 lf 996,0 hPa 0,0 l/m 0 min 0 min 127 W/m 18,0 km/h (3 Bft) 97,87 %
05.01.2018 13:30 9,3 C 10,6 C 8,9 C 85 % 0 lf 996,1 hPa 0,0 l/m 0 min 0 min 128 W/m 13,5 km/h (3 Bft) 97,87 %
05.01.2018 13:32 9,3 C 10,0 C 8,9 C 85 % 0 lf 996,1 hPa 0,0 l/m 0 min 0 min 125 W/m 18,0 km/h (3 Bft) 95,65 %
05.01.2018 13:34 9,3 C 10,0 C 8,9 C 85 % 0 lf 996,1 hPa 0,0 l/m 0 min 0 min 122 W/m 20,3 km/h (4 Bft) 97,87 %
05.01.2018 13:36 9,4 C 10,6 C 8,9 C 85 % 0 lf 996,2 hPa 0,0 l/m 0 min 0 min 119 W/m 18,0 km/h (3 Bft) 95,74 %
05.01.2018 13:38 9,4 C 10,6 C 8,9 C 86 % 0 lf 996,2 hPa 0,0 l/m 0 min 0 min 115 W/m 13,5 km/h (3 Bft) 97,87 %
05.01.2018 13:40 9,4 C 10,6 C 8,9 C 86 % 0 lf 996,1 hPa 0,0 l/m 0 min 0 min 108 W/m 18,0 km/h (3 Bft) 97,87 %
05.01.2018 13:42 9,4 C 10,0 C 8,9 C 86 % 0 lf 996,1 hPa 0,0 l/m 0 min 0 min 106 W/m 13,5 km/h (3 Bft) 97,87 %
05.01.2018 13:44 9,4 C 10,0 C 8,9 C 86 % 0 lf 996,1 hPa 0,0 l/m 0 min 0 min 106 W/m 11,3 km/h (2 Bft) 93,48 %
05.01.2018 13:46 9,4 C 10,0 C 8,9 C 86 % 0 lf 996,0 hPa 0,0 l/m 0 min 0 min 104 W/m 24,8 km/h (4 Bft) 95,74 %
05.01.2018 13:48 9,4 C 10,0 C 8,9 C 86 % 0 lf 996,1 hPa 0,0 l/m 0 min 0 min 99 W/m 15,8 km/h (3 Bft) 97,87 %
05.01.2018 13:50 9,4 C 10,0 C 8,9 C 86 % 0 lf 996,1 hPa 0,0 l/m 0 min 0 min 95 W/m 18,0 km/h (3 Bft) 95,74 %
05.01.2018 13:52 9,4 C 10,0 C 8,9 C 86 % 0 lf 996,1 hPa 0,0 l/m 0 min 0 min 94 W/m 13,5 km/h (3 Bft) 95,74 %
05.01.2018 13:54 9,4 C 10,0 C 8,9 C 86 % 0 lf 996,1 hPa 0,0 l/m 0 min 0 min 99 W/m 20,3 km/h (4 Bft) 97,87 %
05.01.2018 13:56 9,4 C 10,0 C 8,9 C 86 % 0 lf 996,1 hPa 0,0 l/m 0 min 0 min 100 W/m 18,0 km/h (3 Bft) 93,48 %
05.01.2018 13:58 9,4 C 10,0 C 8,9 C 86 % 0 lf 996,1 hPa 0,0 l/m 0 min 0 min 99 W/m 22,5 km/h (4 Bft) 97,87 %
05.01.2018 14:00 9,4 C 10,0 C 8,9 C 86 % 0 lf 996,2 hPa 0,0 l/m 0 min 0 min 105 W/m 27,0 km/h (4 Bft) 95,74 %
05.01.2018 14:02 9,4 C 10,0 C 8,9 C 86 % 0 lf 996,2 hPa 0,0 l/m 0 min 0 min 115 W/m 22,5 km/h (4 Bft) 92,59 %
05.01.2018 14:04 9,4 C 10,6 C 8,9 C 86 % 0 lf 996,1 hPa 0,0 l/m 0 min 0 min 122 W/m 20,3 km/h (4 Bft) 95,74 %
05.01.2018 14:08 9,4 C 10,6 C 8,9 C 86 % 0 lf 996,0 hPa 0,0 l/m 0 min 0 min 124 W/m 27,0 km/h (4 Bft) 97,89 %
05.01.2018 14:10 9,4 C 10,6 C 8,9 C 86 % 0 lf 996,0 hPa 0,0 l/m 0 min 0 min 128 W/m 24,8 km/h (4 Bft) 95,74 %
05.01.2018 14:12 9,4 C 10,6 C 8,9 C 86 % 0 lf 996,1 hPa 0,0 l/m 0 min 0 min 115 W/m 24,8 km/h (4 Bft) 95,74 %
05.01.2018 14:14 9,5 C 10,6 C 8,9 C 86 % 0 lf 996,2 hPa 0,0 l/m 0 min 0 min 117 W/m 18,0 km/h (3 Bft) 95,74 %
05.01.2018 14:16 9,5 C 10,0 C 8,9 C 86 % 0 lf 996,2 hPa 0,0 l/m 0 min 0 min 108 W/m 15,8 km/h (3 Bft) 95,74 %
05.01.2018 14:18 9,5 C 10,0 C 8,9 C 86 % 0 lf 996,3 hPa 0,0 l/m 0 min 0 min 105 W/m 22,5 km/h (4 Bft) 91,49 %
05.01.2018 14:20 9,5 C 10,0 C 8,9 C 86 % 0 lf 996,2 hPa 0,0 l/m 0 min 0 min 106 W/m 22,5 km/h (4 Bft) 97,83 %
05.01.2018 14:22 9,5 C 10,6 C 8,9 C 86 % 0 lf 996,3 hPa 0,0 l/m 0 min 0 min 112 W/m 15,8 km/h (3 Bft) 95,74 %
05.01.2018 14:24 9,5 C 10,6 C 8,9 C 86 % 0 lf 996,3 hPa 0,0 l/m 0 min 0 min 116 W/m 13,5 km/h (3 Bft) 95,74 %
05.01.2018 14:26 9,6 C 10,6 C 8,9 C 87 % 0 lf 996,3 hPa 0,0 l/m 0 min 0 min 108 W/m 20,3 km/h (4 Bft) 95,74 %
05.01.2018 14:28 9,6 C 10,6 C 8,9 C 87 % 0 lf 996,2 hPa 0,0 l/m 0 min 0 min 100 W/m 13,5 km/h (3 Bft) 95,74 %
05.01.2018 14:30 9,6 C 10,6 C 8,9 C 87 % 0 lf 996,2 hPa 0,0 l/m 0 min 0 min 98 W/m 9,0 km/h (2 Bft) 97,87 %
05.01.2018 14:32 9,6 C 10,6 C 8,9 C 87 % 0 lf 996,3 hPa 0,0 l/m 0 min 0 min 97 W/m 15,8 km/h (3 Bft) 91,30 %
05.01.2018 14:34 9,6 C 10,0 C 8,9 C 87 % 0 lf 996,4 hPa 0,0 l/m 0 min 0 min 93 W/m 20,3 km/h (4 Bft) 97,87 %
05.01.2018 14:36 9,6 C 10,0 C 8,9 C 86 % 0 lf 996,3 hPa 0,0 l/m 0 min 0 min 91 W/m 13,5 km/h (3 Bft) 95,74 %
05.01.2018 14:38 9,6 C 10,0 C 8,9 C 86 % 0 lf 996,3 hPa 0,0 l/m 0 min 0 min 92 W/m 11,3 km/h (2 Bft) 97,87 %
05.01.2018 14:40 9,6 C 10,0 C 8,9 C 86 % 0 lf 996,4 hPa 0,0 l/m 0 min 0 min 94 W/m 15,8 km/h (3 Bft) 97,87 %
05.01.2018 14:42 9,6 C 10,0 C 8,9 C 86 % 0 lf 996,3 hPa 0,0 l/m 0 min 0 min 92 W/m 18,0 km/h (3 Bft) 95,74 %
05.01.2018 14:44 9,6 C 10,0 C 8,9 C 86 % 0 lf 996,4 hPa 0,0 l/m 0 min 0 min 98 W/m 15,8 km/h (3 Bft) 95,65 %
05.01.2018 14:46 9,6 C 10,0 C 8,9 C 86 % 0 lf 996,3 hPa 0,0 l/m 0 min 0 min 101 W/m 20,3 km/h (4 Bft) 95,74 %
05.01.2018 14:48 9,6 C 10,0 C 8,9 C 86 % 0 lf 996,4 hPa 0,0 l/m 0 min 0 min 89 W/m 22,5 km/h (4 Bft) 97,87 %
05.01.2018 14:50 9,6 C 10,0 C 8,9 C 86 % 0 lf 996,4 hPa 0,0 l/m 0 min 0 min 79 W/m 15,8 km/h (3 Bft) 93,62 %
05.01.2018 14:52 9,6 C 10,0 C 8,9 C 86 % 0 lf 996,5 hPa 0,0 l/m 0 min 0 min 77 W/m 15,8 km/h (3 Bft) 95,74 %
05.01.2018 14:54 9,6 C 10,0 C 8,3 C 86 % 0 lf 996,4 hPa 0,0 l/m 0 min 0 min 79 W/m 18,0 km/h (3 Bft) 97,87 %
05.01.2018 14:56 9,6 C 10,0 C 8,9 C 86 % 0 lf 996,4 hPa 0,0 l/m 0 min 0 min 78 W/m 18,0 km/h (3 Bft) 95,65 %
05.01.2018 14:58 9,6 C 10,0 C 8,9 C 86 % 0 lf 996,3 hPa 0,0 l/m 0 min 0 min 74 W/m 15,8 km/h (3 Bft) 95,74 %
05.01.2018 15:00 9,6 C 10,0 C 8,9 C 86 % 0 lf 996,4 hPa 0,0 l/m 0 min 0 min 67 W/m 18,0 km/h (3 Bft) 93,62 %
05.01.2018 15:02 9,6 C 10,0 C 8,3 C 86 % 0 lf 996,3 hPa 0,0 l/m 0 min 0 min 65 W/m 13,5 km/h (3 Bft) 93,62 %
05.01.2018 15:05 9,6 C 10,0 C 8,3 C 86 % 0 lf 996,4 hPa 0,0 l/m 0 min 0 min 63 W/m 13,5 km/h (3 Bft) 95,61 %
05.01.2018 15:08 9,6 C 10,0 C 8,3 C 86 % 0 lf 996,4 hPa 0,0 l/m 0 min 0 min 60 W/m 15,8 km/h (3 Bft) 100,00 %
05.01.2018 15:10 9,6 C 10,0 C 8,3 C 86 % 0 lf 996,3 hPa 0,0 l/m 0 min 0 min 60 W/m 13,5 km/h (3 Bft) 100,00 %
05.01.2018 15:12 9,6 C 9,4 C 8,3 C 86 % 0 lf 996,4 hPa 0,0 l/m 0 min 0 min 58 W/m 18,0 km/h (3 Bft) 91,49 %
05.01.2018 15:14 9,6 C 9,4 C 8,3 C 86 % 0 lf 996,3 hPa 0,0 l/m 0 min 0 min 58 W/m 18,0 km/h (3 Bft) 97,37 %
05.01.2018 15:16 9,6 C 9,4 C 8,3 C 86 % 0 lf 996,4 hPa 0,0 l/m 0 min 0 min 57 W/m 22,5 km/h (4 Bft) 93,75 %
05.01.2018 15:18 9,6 C 9,4 C 8,3 C 86 % 0 lf 996,6 hPa 0,0 l/m 0 min 0 min 56 W/m 20,3 km/h (4 Bft) 97,87 %
05.01.2018 15:20 9,6 C 9,4 C 8,3 C 86 % 0 lf 996,6 hPa 0,0 l/m 0 min 0 min 59 W/m 20,3 km/h (4 Bft) 95,74 %
05.01.2018 15:22 9,6 C 9,4 C 8,3 C 86 % 0 lf 996,5 hPa 0,0 l/m 0 min 0 min 63 W/m 18,0 km/h (3 Bft) 97,87 %
05.01.2018 15:24 9,6 C 9,4 C 8,3 C 86 % 0 lf 996,6 hPa 0,0 l/m 0 min 0 min 64 W/m 18,0 km/h (3 Bft) 100,00 %
05.01.2018 15:26 9,5 C 9,4 C 8,3 C 86 % 0 lf 996,5 hPa 0,0 l/m 0 min 0 min 58 W/m 13,5 km/h (3 Bft) 98,11 %
05.01.2018 15:28 9,5 C 9,4 C 8,3 C 86 % 0 lf 996,4 hPa 0,0 l/m 0 min 0 min 55 W/m 11,3 km/h (2 Bft) 100,00 %
05.01.2018 15:30 9,5 C 9,4 C 8,3 C 86 % 0 lf 996,5 hPa 0,0 l/m 0 min 0 min 53 W/m 15,8 km/h (3 Bft) 93,88 %
05.01.2018 15:32 9,5 C 9,4 C 8,3 C 86 % 0 lf 996,3 hPa 0,0 l/m 0 min 0 min 51 W/m 15,8 km/h (3 Bft) 100,00 %
05.01.2018 15:34 9,5 C 9,4 C 8,3 C 86 % 0 lf 996,3 hPa 0,0 l/m 0 min 0 min 48 W/m 13,5 km/h (3 Bft) 95,74 %
05.01.2018 15:36 9,5 C 9,4 C 8,3 C 86 % 0 lf 996,4 hPa 0,0 l/m 0 min 0 min 48 W/m 13,5 km/h (3 Bft) 100,00 %
05.01.2018 15:38 9,5 C 9,4 C 8,3 C 86 % 0 lf 996,4 hPa 0,0 l/m 0 min 0 min 47 W/m 13,5 km/h (3 Bft) 100,00 %
05.01.2018 15:40 9,4 C 9,4 C 8,3 C 86 % 0 lf 996,5 hPa 0,0 l/m 0 min 0 min 48 W/m 15,8 km/h (3 Bft) 100,00 %
05.01.2018 15:42 9,4 C 9,4 C 8,3 C 86 % 0 lf 996,5 hPa 0,0 l/m 0 min 0 min 43 W/m 18,0 km/h (3 Bft) 93,62 %
05.01.2018 15:44 9,4 C 9,4 C 7,8 C 86 % 0 lf 996,5 hPa 0,0 l/m 0 min 0 min 44 W/m 15,8 km/h (3 Bft) 97,87 %
05.01.2018 15:46 9,4 C 9,4 C 7,8 C 86 % 0 lf 996,6 hPa 0,0 l/m 0 min 0 min 41 W/m 15,8 km/h (3 Bft) 100,00 %
05.01.2018 15:48 9,4 C 9,4 C 7,8 C 86 % 0 lf 996,6 hPa 0,0 l/m 0 min 0 min 39 W/m 11,3 km/h (2 Bft) 100,00 %
05.01.2018 15:50 9,4 C 9,4 C 7,8 C 86 % 0 lf 996,6 hPa 0,0 l/m 0 min 0 min 38 W/m 15,8 km/h (3 Bft) 100,00 %
05.01.2018 15:52 9,4 C 8,9 C 7,8 C 86 % 0 lf 996,6 hPa 0,0 l/m 0 min 0 min 35 W/m 15,8 km/h (3 Bft) 97,87 %
05.01.2018 15:54 9,3 C 8,9 C 7,8 C 86 % 0 lf 996,6 hPa 0,0 l/m 0 min 0 min 36 W/m 18,0 km/h (3 Bft) 100,00 %
05.01.2018 15:56 9,3 C 8,9 C 7,8 C 86 % 0 lf 996,4 hPa 0,0 l/m 0 min 0 min 35 W/m 11,3 km/h (2 Bft) 100,00 %
05.01.2018 15:58 9,3 C 8,9 C 7,2 C 86 % 0 lf 996,5 hPa 0,0 l/m 0 min 0 min 33 W/m 15,8 km/h (3 Bft) 97,87 %
05.01.2018 16:00 9,3 C 8,9 C 7,2 C 86 % 0 lf 996,5 hPa 0,0 l/m 0 min 0 min 32 W/m 15,8 km/h (3 Bft) 100,00 %
05.01.2018 16:02 9,3 C 8,9 C 7,8 C 86 % 0 lf 996,5 hPa 0,0 l/m 0 min 0 min 30 W/m 11,3 km/h (2 Bft) 100,00 %
05.01.2018 16:04 9,3 C 8,9 C 7,2 C 86 % 0 lf 996,5 hPa 0,0 l/m 0 min 0 min 28 W/m 20,3 km/h (4 Bft) 100,00 %
05.01.2018 16:06 9,3 C 8,9 C 7,2 C 86 % 0 lf 996,4 hPa 0,0 l/m 0 min 0 min 24 W/m 15,8 km/h (3 Bft) 97,22 %
05.01.2018 16:08 9,2 C 8,9 C 7,2 C 86 % 0 lf 996,5 hPa 0,0 l/m 0 min 0 min 22 W/m 9,0 km/h (2 Bft) 100,00 %
05.01.2018 16:10 9,2 C 8,9 C 7,2 C 86 % 0 lf 996,6 hPa 0,0 l/m 0 min 0 min 21 W/m 15,8 km/h (3 Bft) 98,00 %
05.01.2018 16:12 9,2 C 8,9 C 7,2 C 86 % 0 lf 996,6 hPa 0,0 l/m 0 min 0 min 21 W/m 13,5 km/h (3 Bft) 95,65 %
05.01.2018 16:14 9,2 C 8,9 C 7,2 C 86 % 0 lf 996,6 hPa 0,0 l/m 0 min 0 min 21 W/m 13,5 km/h (3 Bft) 100,00 %
05.01.2018 16:16 9,2 C 8,9 C 7,2 C 86 % 0 lf 996,6 hPa 0,0 l/m 0 min 0 min 18 W/m 20,3 km/h (4 Bft) 100,00 %
05.01.2018 16:18 9,2 C 8,9 C 7,2 C 86 % 0 lf 996,6 hPa 0,0 l/m 0 min 0 min 15 W/m 18,0 km/h (3 Bft) 97,87 %
05.01.2018 16:20 9,2 C 8,9 C 7,2 C 86 % 0 lf 996,6 hPa 0,0 l/m 0 min 0 min 13 W/m 9,0 km/h (2 Bft) 98,31 %
05.01.2018 16:22 9,1 C 8,9 C 7,2 C 87 % 0 lf 996,7 hPa 0,0 l/m 0 min 0 min 12 W/m 11,3 km/h (2 Bft) 94,29 %
05.01.2018 16:24 9,1 C 8,3 C 7,2 C 87 % 0 lf 996,7 hPa 0,0 l/m 0 min 0 min 11 W/m 11,3 km/h (2 Bft) 97,87 %
05.01.2018 16:26 9,1 C 8,9 C 7,2 C 86 % 0 lf 996,7 hPa 0,0 l/m 0 min 0 min 11 W/m 18,0 km/h (3 Bft) 95,65 %
05.01.2018 16:28 9,1 C 8,9 C 7,2 C 87 % 0 lf 996,6 hPa 0,0 l/m 0 min 0 min 9 W/m 9,0 km/h (2 Bft) 97,87 %
05.01.2018 16:30 9,1 C 8,3 C 7,2 C 87 % 0 lf 996,6 hPa 0,0 l/m 0 min 0 min 7 W/m 9,0 km/h (2 Bft) 98,00 %
05.01.2018 16:32 9,1 C 8,3 C 7,2 C 87 % 0 lf 996,6 hPa 0,0 l/m 0 min 0 min 6 W/m 13,5 km/h (3 Bft) 96,23 %
05.01.2018 16:34 9,0 C 8,9 C 7,2 C 87 % 0 lf 996,6 hPa 0,0 l/m 0 min 0 min 5 W/m 13,5 km/h (3 Bft) 93,62 %
05.01.2018 16:36 9,0 C 8,3 C 6,7 C 87 % 0 lf 996,6 hPa 0,0 l/m 0 min 0 min 5 W/m 11,3 km/h (2 Bft) 95,65 %
05.01.2018 16:38 9,0 C 8,3 C 6,7 C 87 % 0 lf 996,7 hPa 0,0 l/m 0 min 0 min 5 W/m 6,8 km/h (2 Bft) 94,74 %
05.01.2018 16:40 9,0 C 8,3 C 6,7 C 87 % 0 lf 996,6 hPa 0,0 l/m 0 min 0 min 5 W/m 13,5 km/h (3 Bft) 94,55 %
05.01.2018 16:42 9,0 C 8,3 C 6,7 C 87 % 0 lf 996,5 hPa 0,0 l/m 0 min 0 min 5 W/m 9,0 km/h (2 Bft) 94,59 %
05.01.2018 16:44 9,0 C 8,3 C 6,7 C 87 % 0 lf 996,6 hPa 0,0 l/m 0 min 0 min 5 W/m 15,8 km/h (3 Bft) 91,49 %
05.01.2018 16:46 8,9 C 8,3 C 6,7 C 87 % 0 lf 996,6 hPa 0,0 l/m 0 min 0 min 0 W/m 11,3 km/h (2 Bft) 96,49 %
05.01.2018 16:48 8,9 C 8,3 C 6,7 C 87 % 0 lf 996,5 hPa 0,0 l/m 0 min 0 min 0 W/m 13,5 km/h (3 Bft) 94,59 %
05.01.2018 16:50 8,9 C 8,3 C 6,7 C 87 % 0 lf 996,4 hPa 0,0 l/m 0 min 0 min 0 W/m 18,0 km/h (3 Bft) 95,65 %
05.01.2018 16:52 8,9 C 8,3 C 6,7 C 87 % 0 lf 996,4 hPa 0,0 l/m 0 min 0 min 0 W/m 11,3 km/h (2 Bft) 95,74 %
05.01.2018 16:54 8,9 C 8,3 C 6,7 C 87 % 0 lf 996,5 hPa 0,0 l/m 0 min 0 min 0 W/m 11,3 km/h (2 Bft) 90,91 %
05.01.2018 16:56 8,9 C 8,3 C 6,7 C 87 % 0 lf 996,4 hPa 0,0 l/m 0 min 0 min 0 W/m 13,5 km/h (3 Bft) 91,49 %
05.01.2018 16:58 8,9 C 8,3 C 6,7 C 87 % 0 lf 996,4 hPa 0,0 l/m 0 min 0 min 0 W/m 11,3 km/h (2 Bft) 91,49 %
05.01.2018 17:00 8,9 C 8,3 C 6,7 C 87 % 0 lf 996,5 hPa 0,0 l/m 0 min 0 min 0 W/m 15,8 km/h (3 Bft) 84,78 %
05.01.2018 17:02 8,8 C 8,3 C 6,7 C 87 % 0 lf 996,5 hPa 0,0 l/m 0 min 0 min 0 W/m 18,0 km/h (3 Bft) 93,62 %
05.01.2018 17:04 8,8 C 8,3 C 6,7 C 88 % 0 lf 996,5 hPa 0,0 l/m 0 min 0 min 0 W/m 18,0 km/h (3 Bft) 91,49 %
05.01.2018 17:06 8,8 C 8,3 C 6,7 C 88 % 0 lf 996,5 hPa 0,0 l/m 0 min 0 min 0 W/m 20,3 km/h (4 Bft) 93,62 %
05.01.2018 17:08 8,8 C 8,3 C 6,7 C 88 % 0 lf 996,4 hPa 0,0 l/m 0 min 0 min 0 W/m 15,8 km/h (3 Bft) 89,36 %
05.01.2018 17:10 8,8 C 8,3 C 6,7 C 88 % 0 lf 996,4 hPa 0,0 l/m 0 min 0 min 0 W/m 24,8 km/h (4 Bft) 93,62 %
05.01.2018 17:12 8,8 C 8,9 C 6,7 C 88 % 0 lf 996,5 hPa 0,0 l/m 0 min 0 min 0 W/m 22,5 km/h (4 Bft) 93,48 %
05.01.2018 17:14 8,8 C 8,3 C 6,7 C 88 % 0 lf 996,5 hPa 0,0 l/m 0 min 0 min 0 W/m 15,8 km/h (3 Bft) 91,49 %
05.01.2018 17:16 8,8 C 8,3 C 6,7 C 88 % 0 lf 996,5 hPa 0,0 l/m 0 min 0 min 0 W/m 11,3 km/h (2 Bft) 89,36 %
05.01.2018 17:18 8,8 C 8,3 C 6,7 C 88 % 0 lf 996,5 hPa 0,0 l/m 0 min 0 min 0 W/m 15,8 km/h (3 Bft) 89,36 %
05.01.2018 17:20 8,8 C 8,3 C 6,7 C 88 % 0 lf 996,5 hPa 0,0 l/m 0 min 0 min 0 W/m 20,3 km/h (4 Bft) 91,49 %
05.01.2018 17:22 8,8 C 8,3 C 6,7 C 88 % 0 lf 996,5 hPa 0,0 l/m 0 min 0 min 0 W/m 15,8 km/h (3 Bft) 89,13 %
05.01.2018 17:24 8,8 C 8,3 C 6,7 C 88 % 0 lf 996,5 hPa 0,0 l/m 0 min 0 min 0 W/m 18,0 km/h (3 Bft) 91,49 %
05.01.2018 17:26 8,7 C 8,3 C 7,2 C 88 % 0 lf 996,5 hPa 0,0 l/m 0 min 0 min 0 W/m 15,8 km/h (3 Bft) 93,62 %
05.01.2018 17:28 8,7 C 8,3 C 6,7 C 88 % 0 lf 996,5 hPa 0,0 l/m 0 min 0 min 0 W/m 15,8 km/h (3 Bft) 91,49 %
05.01.2018 17:30 8,8 C 8,3 C 7,2 C 88 % 0 lf 996,5 hPa 0,0 l/m 0 min 0 min 0 W/m 15,8 km/h (3 Bft) 97,87 %
05.01.2018 17:32 8,7 C 8,3 C 7,2 C 88 % 0 lf 996,5 hPa 0,0 l/m 0 min 0 min 0 W/m 15,8 km/h (3 Bft) 95,74 %
05.01.2018 17:34 8,7 C 8,3 C 6,7 C 88 % 0 lf 996,5 hPa 0,0 l/m 0 min 0 min 0 W/m 22,5 km/h (4 Bft) 93,62 %
05.01.2018 17:36 8,8 C 8,3 C 6,7 C 88 % 0 lf 996,6 hPa 0,0 l/m 0 min 0 min 0 W/m 18,0 km/h (3 Bft) 97,83 %
05.01.2018 17:38 8,7 C 8,3 C 6,7 C 87 % 0 lf 996,6 hPa 0,0 l/m 0 min 0 min 0 W/m 15,8 km/h (3 Bft) 97,87 %
05.01.2018 17:40 8,7 C 8,3 C 6,7 C 87 % 0 lf 996,6 hPa 0,0 l/m 0 min 0 min 0 W/m 13,5 km/h (3 Bft) 97,87 %
05.01.2018 17:42 8,7 C 8,3 C 6,7 C 87 % 0 lf 996,6 hPa 0,0 l/m 0 min 0 min 0 W/m 18,0 km/h (3 Bft) 95,74 %
05.01.2018 17:44 8,7 C 8,3 C 6,7 C 87 % 0 lf 996,7 hPa 0,0 l/m 0 min 0 min 0 W/m 18,0 km/h (3 Bft) 97,87 %
05.01.2018 17:46 8,7 C 8,3 C 6,7 C 87 % 0 lf 996,6 hPa 0,0 l/m 0 min 0 min 0 W/m 15,8 km/h (3 Bft) 97,83 %
05.01.2018 17:48 8,7 C 8,3 C 6,7 C 87 % 0 lf 996,6 hPa 0,0 l/m 0 min 0 min 0 W/m 18,0 km/h (3 Bft) 97,87 %
05.01.2018 17:50 8,7 C 8,3 C 6,7 C 87 % 0 lf 996,6 hPa 0,0 l/m 0 min 0 min 0 W/m 15,8 km/h (3 Bft) 97,96 %
05.01.2018 17:52 8,7 C 8,3 C 6,7 C 87 % 0 lf 996,6 hPa 0,0 l/m 0 min 0 min 0 W/m 15,8 km/h (3 Bft) 97,87 %
05.01.2018 17:54 8,7 C 8,3 C 6,7 C 87 % 0 lf 996,6 hPa 0,0 l/m 0 min 0 min 0 W/m 22,5 km/h (4 Bft) 95,74 %
05.01.2018 17:56 8,7 C 8,3 C 6,7 C 87 % 0 lf 996,6 hPa 0,0 l/m 0 min 0 min 0 W/m 13,5 km/h (3 Bft) 97,87 %
05.01.2018 17:58 8,7 C 8,3 C 6,7 C 87 % 0 lf 996,6 hPa 0,0 l/m 0 min 0 min 0 W/m 13,5 km/h (3 Bft) 97,83 %
05.01.2018 18:00 8,7 C 8,3 C 6,7 C 87 % 0 lf 996,7 hPa 0,0 l/m 0 min 0 min 0 W/m 13,5 km/h (3 Bft) 100,00 %
05.01.2018 18:02 8,7 C 8,3 C 6,7 C 87 % 0 lf 996,7 hPa 0,0 l/m 0 min 0 min 0 W/m 20,3 km/h (4 Bft) 97,87 %
05.01.2018 18:04 8,7 C 8,3 C 6,7 C 87 % 0 lf 996,7 hPa 0,0 l/m 0 min 0 min 0 W/m 18,0 km/h (3 Bft) 97,87 %
05.01.2018 18:06 8,7 C 8,3 C 6,7 C 87 % 0 lf 996,7 hPa 0,0 l/m 0 min 0 min 0 W/m 18,0 km/h (3 Bft) 97,87 %
05.01.2018 18:08 8,7 C 8,3 C 6,7 C 87 % 0 lf 996,8 hPa 0,0 l/m 0 min 0 min 0 W/m 20,3 km/h (4 Bft) 96,00 %
05.01.2018 18:10 8,7 C 8,3 C 7,2 C 87 % 0 lf 996,8 hPa 0,0 l/m 0 min 0 min 0 W/m 22,5 km/h (4 Bft) 94,92 %
05.01.2018 18:12 8,7 C 8,3 C 7,2 C 87 % 0 lf 996,7 hPa 0,0 l/m 0 min 0 min 0 W/m 27,0 km/h (4 Bft) 100,00 %
05.01.2018 18:14 8,7 C 8,3 C 6,7 C 87 % 0 lf 996,7 hPa 0,0 l/m 0 min 0 min 0 W/m 13,5 km/h (3 Bft) 97,87 %
05.01.2018 18:16 8,7 C 8,3 C 6,7 C 87 % 0 lf 996,7 hPa 0,0 l/m 0 min 0 min 0 W/m 15,8 km/h (3 Bft) 100,00 %
05.01.2018 18:18 8,7 C 8,3 C 6,7 C 87 % 0 lf 996,7 hPa 0,0 l/m 0 min 0 min 0 W/m 18,0 km/h (3 Bft) 100,00 %
05.01.2018 18:20 8,7 C 8,3 C 6,7 C 87 % 0 lf 996,7 hPa 0,0 l/m 0 min 0 min 0 W/m 13,5 km/h (3 Bft) 100,00 %
05.01.2018 18:22 8,7 C 8,3 C 6,7 C 86 % 0 lf 996,7 hPa 0,0 l/m 0 min 0 min 0 W/m 29,3 km/h (5 Bft) 97,22 %
05.01.2018 18:24 8,7 C 8,3 C 7,2 C 86 % 0 lf 996,7 hPa 0,0 l/m 0 min 0 min 0 W/m 22,5 km/h (4 Bft) 100,00 %
05.01.2018 18:26 8,7 C 8,3 C 6,7 C 86 % 0 lf 996,7 hPa 0,0 l/m 0 min 0 min 0 W/m 22,5 km/h (4 Bft) 100,00 %
05.01.2018 18:28 8,7 C 8,3 C 6,7 C 86 % 0 lf 996,8 hPa 0,0 l/m 0 min 0 min 0 W/m 18,0 km/h (3 Bft) 97,87 %
05.01.2018 18:30 8,7 C 8,3 C 6,7 C 86 % 0 lf 996,8 hPa 0,0 l/m 0 min 0 min 0 W/m 18,0 km/h (3 Bft) 97,87 %
05.01.2018 18:32 8,7 C 8,3 C 6,7 C 86 % 0 lf 996,7 hPa 0,0 l/m 0 min 0 min 0 W/m 11,3 km/h (2 Bft) 100,00 %
05.01.2018 18:34 8,7 C 8,3 C 6,7 C 86 % 0 lf 996,8 hPa 0,0 l/m 0 min 0 min 0 W/m 22,5 km/h (4 Bft) 95,65 %
05.01.2018 18:36 8,7 C 8,3 C 6,7 C 86 % 0 lf 996,8 hPa 0,0 l/m 0 min 0 min 0 W/m 20,3 km/h (4 Bft) 100,00 %
05.01.2018 18:38 8,7 C 8,3 C 6,7 C 86 % 0 lf 996,8 hPa 0,0 l/m 0 min 0 min 0 W/m 18,0 km/h (3 Bft) 97,87 %
05.01.2018 18:40 8,7 C 8,3 C 6,7 C 86 % 0 lf 996,8 hPa 0,0 l/m 0 min 0 min 0 W/m 24,8 km/h (4 Bft) 97,87 %
05.01.2018 18:42 8,7 C 8,3 C 6,7 C 86 % 0 lf 996,7 hPa 0,0 l/m 0 min 0 min 0 W/m 18,0 km/h (3 Bft) 97,87 %
05.01.2018 18:44 8,7 C 8,3 C 6,7 C 86 % 0 lf 996,7 hPa 0,0 l/m 0 min 0 min 0 W/m 20,3 km/h (4 Bft) 97,87 %
05.01.2018 18:46 8,7 C 8,3 C 6,7 C 85 % 0 lf 996,8 hPa 0,0 l/m 0 min 0 min 0 W/m 22,5 km/h (4 Bft) 95,65 %
05.01.2018 18:48 8,7 C 8,3 C 6,7 C 85 % 0 lf 996,9 hPa 0,0 l/m 0 min 0 min 0 W/m 20,3 km/h (4 Bft) 100,00 %
05.01.2018 18:50 8,6 C 8,3 C 6,7 C 85 % 0 lf 997,0 hPa 0,0 l/m 0 min 0 min 0 W/m 24,8 km/h (4 Bft) 98,31 %
05.01.2018 18:52 8,7 C 8,3 C 6,7 C 85 % 0 lf 996,9 hPa 0,0 l/m 0 min 0 min 0 W/m 22,5 km/h (4 Bft) 100,00 %
05.01.2018 18:54 8,7 C 8,3 C 7,2 C 85 % 0 lf 996,9 hPa 0,0 l/m 0 min 0 min 0 W/m 22,5 km/h (4 Bft) 95,74 %
05.01.2018 18:56 8,7 C 8,3 C 7,2 C 85 % 0 lf 996,9 hPa 0,0 l/m 0 min 0 min 0 W/m 24,8 km/h (4 Bft) 97,87 %
05.01.2018 18:58 8,7 C 8,3 C 7,2 C 85 % 0 lf 997,0 hPa 0,0 l/m 0 min 0 min 0 W/m 20,3 km/h (4 Bft) 97,83 %
05.01.2018 19:00 8,7 C 8,3 C 7,2 C 85 % 0 lf 996,9 hPa 0,0 l/m 0 min 0 min 0 W/m 22,5 km/h (4 Bft) 97,87 %
05.01.2018 19:02 8,7 C 8,9 C 7,2 C 85 % 0 lf 997,0 hPa 0,0 l/m 0 min 0 min 0 W/m 38,3 km/h (5 Bft) 97,92 %
05.01.2018 19:04 8,7 C 8,9 C 7,2 C 85 % 0 lf 997,0 hPa 0,0 l/m 0 min 0 min 0 W/m 22,5 km/h (4 Bft) 97,87 %
05.01.2018 19:06 8,7 C 8,9 C 7,2 C 85 % 0 lf 997,0 hPa 0,0 l/m 0 min 0 min 0 W/m 27,0 km/h (4 Bft) 95,74 %
05.01.2018 19:08 8,8 C 8,9 C 7,2 C 85 % 0 lf 997,0 hPa 0,0 l/m 0 min 0 min 0 W/m 24,8 km/h (4 Bft) 95,74 %
05.01.2018 19:10 8,8 C 8,9 C 7,2 C 85 % 0 lf 997,1 hPa 0,0 l/m 0 min 0 min 0 W/m 22,5 km/h (4 Bft) 97,87 %
05.01.2018 19:12 8,8 C 8,9 C 7,2 C 85 % 0 lf 997,1 hPa 0,0 l/m 0 min 0 min 0 W/m 29,3 km/h (5 Bft) 93,62 %
05.01.2018 19:14 8,8 C 8,9 C 7,2 C 85 % 0 lf 997,1 hPa 0,0 l/m 0 min 0 min 0 W/m 29,3 km/h (5 Bft) 95,74 %
05.01.2018 19:16 8,8 C 8,9 C 7,2 C 85 % 0 lf 997,1 hPa 0,0 l/m 0 min 0 min 0 W/m 38,3 km/h (5 Bft) 95,74 %
05.01.2018 19:18 8,8 C 8,9 C 7,2 C 84 % 0 lf 997,1 hPa 0,0 l/m 0 min 0 min 0 W/m 38,3 km/h (5 Bft) 93,62 %
05.01.2018 19:20 8,9 C 8,9 C 7,2 C 84 % 0 lf 997,2 hPa 0,0 l/m 0 min 0 min 0 W/m 36,0 km/h (5 Bft) 98,28 %
05.01.2018 19:22 8,9 C 8,9 C 7,2 C 84 % 0 lf 997,2 hPa 0,0 l/m 0 min 0 min 0 W/m 24,8 km/h (4 Bft) 97,14 %
05.01.2018 19:24 8,9 C 8,9 C 7,2 C 84 % 0 lf 997,2 hPa 0,0 l/m 0 min 0 min 0 W/m 31,5 km/h (5 Bft) 100,00 %
05.01.2018 19:26 8,9 C 8,9 C 7,2 C 84 % 0 lf 997,2 hPa 0,0 l/m 0 min 0 min 0 W/m 33,8 km/h (5 Bft) 100,00 %
05.01.2018 19:28 8,9 C 8,9 C 7,2 C 84 % 0 lf 997,1 hPa 0,0 l/m 0 min 0 min 0 W/m 27,0 km/h (4 Bft) 95,74 %
05.01.2018 19:30 8,9 C 8,9 C 7,2 C 84 % 0 lf 997,2 hPa 0,0 l/m 0 min 0 min 0 W/m 22,5 km/h (4 Bft) 95,74 %
05.01.2018 19:32 8,9 C 8,9 C 7,2 C 84 % 0 lf 997,2 hPa 0,0 l/m 0 min 0 min 0 W/m 31,5 km/h (5 Bft) 93,62 %
05.01.2018 19:34 8,9 C 8,3 C 7,2 C 84 % 0 lf 997,3 hPa 0,0 l/m 0 min 0 min 0 W/m 20,3 km/h (4 Bft) 97,83 %
05.01.2018 19:36 8,9 C 8,3 C 7,2 C 84 % 0 lf 997,3 hPa 0,0 l/m 0 min 0 min 0 W/m 27,0 km/h (4 Bft) 97,87 %
05.01.2018 19:38 8,9 C 8,3 C 7,2 C 85 % 0 lf 997,3 hPa 0,0 l/m 0 min 0 min 0 W/m 31,5 km/h (5 Bft) 93,62 %
05.01.2018 19:40 8,9 C 8,3 C 7,2 C 85 % 0 lf 997,4 hPa 0,0 l/m 0 min 0 min 0 W/m 20,3 km/h (4 Bft) 97,87 %
05.01.2018 19:42 8,9 C 8,3 C 7,2 C 85 % 0 lf 997,3 hPa 0,0 l/m 0 min 0 min 0 W/m 22,5 km/h (4 Bft) 95,74 %
05.01.2018 19:44 8,9 C 8,3 C 6,7 C 85 % 0 lf 997,4 hPa 0,0 l/m 0 min 0 min 0 W/m 22,5 km/h (4 Bft) 97,87 %
05.01.2018 19:46 8,8 C 8,3 C 7,2 C 85 % 0 lf 997,4 hPa 0,0 l/m 0 min 0 min 0 W/m 27,0 km/h (4 Bft) 93,48 %
05.01.2018 19:48 8,8 C 8,3 C 7,2 C 85 % 0 lf 997,5 hPa 0,0 l/m 0 min 0 min 0 W/m 31,5 km/h (5 Bft) 97,87 %
05.01.2018 19:50 8,8 C 8,3 C 7,2 C 85 % 0 lf 997,6 hPa 0,0 l/m 0 min 0 min 0 W/m 27,0 km/h (4 Bft) 89,83 %
05.01.2018 19:52 8,8 C 8,3 C 7,2 C 85 % 0 lf 997,6 hPa 0,0 l/m 0 min 0 min 0 W/m 24,8 km/h (4 Bft) 94,29 %
05.01.2018 19:54 8,8 C 8,3 C 6,7 C 85 % 0 lf 997,7 hPa 0,0 l/m 0 min 0 min 0 W/m 27,0 km/h (4 Bft) 95,74 %
05.01.2018 19:56 8,7 C 8,3 C 6,7 C 85 % 0 lf 997,7 hPa 0,0 l/m 0 min 0 min 0 W/m 27,0 km/h (4 Bft) 91,30 %
05.01.2018 19:58 8,7 C 8,3 C 6,7 C 85 % 0 lf 997,7 hPa 0,0 l/m 0 min 0 min 0 W/m 36,0 km/h (5 Bft) 95,74 %
05.01.2018 20:00 8,7 C 8,3 C 6,7 C 84 % 0 lf 997,6 hPa 0,0 l/m 0 min 0 min 0 W/m 31,5 km/h (5 Bft) 95,74 %
05.01.2018 20:02 8,6 C 8,3 C 6,7 C 84 % 0 lf 997,8 hPa 0,0 l/m 0 min 0 min 0 W/m 27,0 km/h (4 Bft) 95,74 %
05.01.2018 20:04 8,6 C 7,8 C 6,7 C 84 % 0 lf 997,8 hPa 0,0 l/m 0 min 0 min 0 W/m 24,8 km/h (4 Bft) 95,74 %
05.01.2018 20:06 8,6 C 7,8 C 6,7 C 84 % 0 lf 997,8 hPa 0,0 l/m 0 min 0 min 0 W/m 29,3 km/h (5 Bft) 93,62 %
05.01.2018 20:08 8,5 C 7,8 C 6,7 C 84 % 0 lf 997,8 hPa 0,0 l/m 0 min 0 min 0 W/m 24,8 km/h (4 Bft) 95,65 %
05.01.2018 20:10 8,4 C 7,8 C 6,1 C 84 % 0 lf 997,9 hPa 0,0 l/m 0 min 0 min 0 W/m 36,0 km/h (5 Bft) 91,49 %
05.01.2018 20:12 8,4 C 7,8 C 6,1 C 84 % 0 lf 997,9 hPa 0,0 l/m 0 min 0 min 0 W/m 31,5 km/h (5 Bft) 89,36 %
05.01.2018 20:14 8,4 C 7,8 C 6,1 C 84 % 0 lf 997,9 hPa 0,0 l/m 0 min 0 min 0 W/m 24,8 km/h (4 Bft) 93,62 %
05.01.2018 20:16 8,3 C 7,8 C 6,1 C 85 % 0 lf 997,9 hPa 0,0 l/m 0 min 0 min 0 W/m 27,0 km/h (4 Bft) 95,74 %
05.01.2018 20:18 8,3 C 7,8 C 6,1 C 85 % 0 lf 997,9 hPa 0,0 l/m 0 min 0 min 0 W/m 24,8 km/h (4 Bft) 93,62 %
05.01.2018 20:20 8,2 C 7,8 C 6,1 C 84 % 0 lf 997,9 hPa 0,0 l/m 0 min 0 min 0 W/m 27,0 km/h (4 Bft) 93,10 %
05.01.2018 20:22 8,2 C 7,2 C 6,1 C 85 % 0 lf 997,9 hPa 0,0 l/m 0 min 0 min 0 W/m 22,5 km/h (4 Bft) 97,14 %
05.01.2018 20:24 8,2 C 7,2 C 5,6 C 85 % 0 lf 997,9 hPa 0,0 l/m 0 min 0 min 0 W/m 24,8 km/h (4 Bft) 93,62 %
05.01.2018 20:26 8,1 C 7,2 C 5,6 C 85 % 0 lf 998,0 hPa 0,0 l/m 0 min 0 min 0 W/m 20,3 km/h (4 Bft) 93,62 %
05.01.2018 20:28 8,1 C 7,2 C 5,6 C 85 % 0 lf 997,9 hPa 0,0 l/m 0 min 0 min 0 W/m 27,0 km/h (4 Bft) 95,74 %
05.01.2018 20:30 8,0 C 7,2 C 5,6 C 85 % 0 lf 998,0 hPa 0,0 l/m 0 min 0 min 0 W/m 29,3 km/h (5 Bft) 93,62 %
05.01.2018 20:32 7,9 C 7,2 C 5,6 C 85 % 0 lf 998,0 hPa 0,0 l/m 0 min 0 min 0 W/m 27,0 km/h (4 Bft) 95,65 %
05.01.2018 20:34 7,9 C 7,2 C 5,6 C 85 % 0 lf 998,1 hPa 0,0 l/m 0 min 0 min 0 W/m 22,5 km/h (4 Bft) 95,74 %
05.01.2018 20:36 7,9 C 7,2 C 5,6 C 85 % 0 lf 998,1 hPa 0,0 l/m 0 min 0 min 0 W/m 22,5 km/h (4 Bft) 95,74 %
05.01.2018 20:38 7,8 C 7,2 C 5,6 C 85 % 0 lf 998,1 hPa 0,0 l/m 0 min 0 min 0 W/m 18,0 km/h (3 Bft) 95,74 %
05.01.2018 20:40 7,8 C 7,2 C 5,6 C 85 % 0 lf 998,2 hPa 0,0 l/m 0 min 0 min 0 W/m 20,3 km/h (4 Bft) 95,74 %
05.01.2018 20:42 7,8 C 7,2 C 5,6 C 85 % 0 lf 998,2 hPa 0,0 l/m 0 min 0 min 0 W/m 36,0 km/h (5 Bft) 97,87 %
05.01.2018 20:44 7,7 C 7,2 C 5,6 C 85 % 0 lf 998,3 hPa 0,0 l/m 0 min 0 min 0 W/m 33,8 km/h (5 Bft) 97,83 %
05.01.2018 20:46 7,7 C 7,2 C 5,6 C 85 % 0 lf 998,3 hPa 0,0 l/m 0 min 0 min 0 W/m 20,3 km/h (4 Bft) 95,74 %
05.01.2018 20:48 7,7 C 7,2 C 5,6 C 85 % 0 lf 998,4 hPa 0,0 l/m 0 min 0 min 0 W/m 18,0 km/h (3 Bft) 95,74 %
05.01.2018 20:50 7,6 C 6,7 C 5,0 C 85 % 0 lf 998,4 hPa 0,0 l/m 0 min 0 min 0 W/m 24,8 km/h (4 Bft) 94,92 %
05.01.2018 20:52 7,6 C 6,7 C 5,6 C 85 % 0 lf 998,4 hPa 0,0 l/m 0 min 0 min 0 W/m 33,8 km/h (5 Bft) 94,29 %
05.01.2018 20:54 7,5 C 6,7 C 5,6 C 85 % 0 lf 998,4 hPa 0,0 l/m 0 min 0 min 0 W/m 27,0 km/h (4 Bft) 93,48 %
05.01.2018 20:56 7,5 C 6,7 C 5,0 C 85 % 0 lf 998,4 hPa 0,0 l/m 0 min 0 min 0 W/m 27,0 km/h (4 Bft) 95,74 %
05.01.2018 20:58 7,4 C 6,7 C 5,0 C 85 % 0 lf 998,4 hPa 0,0 l/m 0 min 0 min 0 W/m 27,0 km/h (4 Bft) 93,62 %
05.01.2018 21:00 7,4 C 6,7 C 5,0 C 85 % 0 lf 998,5 hPa 0,0 l/m 0 min 0 min 0 W/m 27,0 km/h (4 Bft) 93,62 %
05.01.2018 21:02 7,3 C 6,7 C 5,0 C 85 % 0 lf 998,6 hPa 0,0 l/m 0 min 0 min 0 W/m 29,3 km/h (5 Bft) 93,62 %
05.01.2018 21:04 7,3 C 6,7 C 5,0 C 85 % 0 lf 998,6 hPa 0,0 l/m 0 min 0 min 0 W/m 22,5 km/h (4 Bft) 95,74 %
05.01.2018 21:06 7,3 C 6,7 C 5,0 C 85 % 0 lf 998,7 hPa 0,0 l/m 0 min 0 min 0 W/m 31,5 km/h (5 Bft) 93,48 %
05.01.2018 21:08 7,3 C 6,7 C 5,0 C 86 % 0 lf 998,7 hPa 0,0 l/m 0 min 0 min 0 W/m 27,0 km/h (4 Bft) 95,74 %
05.01.2018 21:10 7,2 C 6,7 C 5,0 C 85 % 0 lf 998,7 hPa 0,0 l/m 0 min 0 min 0 W/m 36,0 km/h (5 Bft) 93,62 %
05.01.2018 21:12 7,2 C 6,7 C 5,0 C 85 % 0 lf 998,7 hPa 0,0 l/m 0 min 0 min 0 W/m 22,5 km/h (4 Bft) 95,74 %
05.01.2018 21:14 7,2 C 6,7 C 5,0 C 86 % 0 lf 998,7 hPa 0,0 l/m 0 min 0 min 0 W/m 24,8 km/h (4 Bft) 95,74 %
05.01.2018 21:16 7,2 C 6,7 C 5,0 C 86 % 0 lf 998,8 hPa 0,0 l/m 0 min 0 min 0 W/m 29,3 km/h (5 Bft) 93,62 %
05.01.2018 21:18 7,1 C 6,7 C 5,0 C 86 % 0 lf 998,8 hPa 0,0 l/m 0 min 0 min 0 W/m 31,5 km/h (5 Bft) 100,00 %
05.01.2018 21:20 7,1 C 6,7 C 5,0 C 86 % 0 lf 998,9 hPa 0,0 l/m 0 min 0 min 0 W/m 31,5 km/h (5 Bft) 100,00 %
05.01.2018 21:22 7,1 C 6,7 C 5,0 C 86 % 0 lf 998,9 hPa 0,0 l/m 0 min 0 min 0 W/m 29,3 km/h (5 Bft) 100,00 %
05.01.2018 21:24 7,1 C 6,7 C 5,0 C 86 % 0 lf 998,9 hPa 0,0 l/m 0 min 0 min 0 W/m 29,3 km/h (5 Bft) 100,00 %
05.01.2018 21:26 7,1 C 6,7 C 5,0 C 86 % 0 lf 999,0 hPa 0,0 l/m 0 min 0 min 0 W/m 22,5 km/h (4 Bft) 100,00 %
05.01.2018 21:28 7,0 C 6,7 C 5,0 C 86 % 0 lf 999,0 hPa 0,0 l/m 0 min 0 min 0 W/m 24,8 km/h (4 Bft) 100,00 %
05.01.2018 21:30 7,0 C 6,1 C 5,0 C 86 % 0 lf 999,0 hPa 0,0 l/m 0 min 0 min 0 W/m 20,3 km/h (4 Bft) 97,83 %
05.01.2018 21:32 7,0 C 6,1 C 5,0 C 86 % 0 lf 999,0 hPa 0,0 l/m 0 min 0 min 0 W/m 20,3 km/h (4 Bft) 100,00 %
05.01.2018 21:34 6,9 C 6,1 C 5,0 C 86 % 0 lf 999,0 hPa 0,0 l/m 0 min 0 min 0 W/m 20,3 km/h (4 Bft) 97,87 %
05.01.2018 21:36 6,9 C 6,1 C 5,0 C 87 % 0 lf 999,0 hPa 0,0 l/m 0 min 0 min 0 W/m 18,0 km/h (3 Bft) 100,00 %
05.01.2018 21:38 6,9 C 6,1 C 5,0 C 87 % 0 lf 999,0 hPa 0,0 l/m 0 min 0 min 0 W/m 27,0 km/h (4 Bft) 100,00 %
05.01.2018 21:40 6,8 C 6,1 C 4,4 C 87 % 0 lf 999,1 hPa 0,0 l/m 0 min 0 min 0 W/m 20,3 km/h (4 Bft) 100,00 %
05.01.2018 21:42 6,8 C 6,1 C 4,4 C 87 % 0 lf 999,1 hPa 0,0 l/m 0 min 0 min 0 W/m 18,0 km/h (3 Bft) 97,83 %
05.01.2018 21:44 6,8 C 6,1 C 4,4 C 87 % 0 lf 999,1 hPa 0,0 l/m 0 min 0 min 0 W/m 18,0 km/h (3 Bft) 97,87 %
05.01.2018 21:46 6,7 C 6,1 C 4,4 C 87 % 0 lf 999,1 hPa 0,0 l/m 0 min 0 min 0 W/m 20,3 km/h (4 Bft) 97,87 %
05.01.2018 21:48 6,7 C 6,1 C 4,4 C 87 % 0 lf 999,2 hPa 0,0 l/m 0 min 0 min 0 W/m 27,0 km/h (4 Bft) 97,87 %
05.01.2018 21:50 6,7 C 6,1 C 4,4 C 87 % 0 lf 999,2 hPa 0,0 l/m 0 min 0 min 0 W/m 24,8 km/h (4 Bft) 97,87 %
05.01.2018 21:52 6,7 C 6,1 C 4,4 C 87 % 0 lf 999,2 hPa 0,0 l/m 0 min 0 min 0 W/m 18,0 km/h (3 Bft) 100,00 %
05.01.2018 21:54 6,7 C 6,1 C 4,4 C 87 % 0 lf 999,2 hPa 0,0 l/m 0 min 0 min 0 W/m 22,5 km/h (4 Bft) 97,87 %
05.01.2018 21:56 6,6 C 6,1 C 4,4 C 87 % 0 lf 999,2 hPa 0,0 l/m 0 min 0 min 0 W/m 22,5 km/h (4 Bft) 100,00 %
05.01.2018 21:58 6,6 C 6,1 C 4,4 C 88 % 0 lf 999,2 hPa 0,0 l/m 0 min 0 min 0 W/m 22,5 km/h (4 Bft) 100,00 %
05.01.2018 22:00 6,6 C 6,1 C 4,4 C 88 % 0 lf 999,2 hPa 0,0 l/m 0 min 0 min 0 W/m 20,3 km/h (4 Bft) 100,00 %
05.01.2018 22:02 6,6 C 6,1 C 4,4 C 87 % 0 lf 999,3 hPa 0,0 l/m 0 min 0 min 0 W/m 20,3 km/h (4 Bft) 91,49 %
05.01.2018 22:04 6,5 C 6,1 C 4,4 C 88 % 0 lf 999,3 hPa 0,0 l/m 0 min 0 min 0 W/m 22,5 km/h (4 Bft) 100,00 %
05.01.2018 22:06 6,5 C 6,1 C 4,4 C 88 % 0 lf 999,3 hPa 0,0 l/m 0 min 0 min 0 W/m 24,8 km/h (4 Bft) 100,00 %
05.01.2018 22:08 6,5 C 6,1 C 4,4 C 88 % 0 lf 999,3 hPa 0,0 l/m 0 min 0 min 0 W/m 18,0 km/h (3 Bft) 100,00 %
05.01.2018 22:10 6,4 C 6,1 C 4,4 C 88 % 0 lf 999,4 hPa 0,0 l/m 0 min 0 min 0 W/m 15,8 km/h (3 Bft) 95,74 %
05.01.2018 22:12 6,4 C 5,6 C 4,4 C 88 % 0 lf 999,4 hPa 0,0 l/m 0 min 0 min 0 W/m 20,3 km/h (4 Bft) 95,74 %
05.01.2018 22:14 6,4 C 5,6 C 4,4 C 88 % 0 lf 999,4 hPa 0,0 l/m 0 min 0 min 0 W/m 18,0 km/h (3 Bft) 97,87 %
05.01.2018 22:16 6,4 C 5,6 C 4,4 C 88 % 0 lf 999,4 hPa 0,0 l/m 0 min 0 min 0 W/m 18,0 km/h (3 Bft) 100,00 %
05.01.2018 22:18 6,4 C 5,6 C 4,4 C 88 % 0 lf 999,5 hPa 0,0 l/m 0 min 0 min 0 W/m 20,3 km/h (4 Bft) 97,87 %
05.01.2018 22:20 6,4 C 5,6 C 3,9 C 88 % 0 lf 999,5 hPa 0,0 l/m 0 min 0 min 0 W/m 20,3 km/h (4 Bft) 100,00 %
05.01.2018 22:22 6,4 C 5,6 C 3,9 C 88 % 0 lf 999,5 hPa 0,0 l/m 0 min 0 min 0 W/m 15,8 km/h (3 Bft) 97,87 %
05.01.2018 22:24 6,4 C 5,6 C 3,9 C 88 % 0 lf 999,7 hPa 0,0 l/m 0 min 0 min 0 W/m 24,8 km/h (4 Bft) 97,87 %
05.01.2018 22:26 6,3 C 5,6 C 3,9 C 88 % 0 lf 999,7 hPa 0,0 l/m 0 min 0 min 0 W/m 13,5 km/h (3 Bft) 97,87 %
05.01.2018 22:28 6,3 C 5,6 C 3,9 C 88 % 0 lf 999,8 hPa 0,0 l/m 0 min 0 min 0 W/m 18,0 km/h (3 Bft) 95,65 %
05.01.2018 22:30 6,3 C 5,6 C 3,9 C 88 % 0 lf 999,7 hPa 0,0 l/m 0 min 0 min 0 W/m 15,8 km/h (3 Bft) 95,74 %
05.01.2018 22:32 6,3 C 5,6 C 3,9 C 88 % 0 lf 999,8 hPa 0,0 l/m 0 min 0 min 0 W/m 18,0 km/h (3 Bft) 93,62 %
05.01.2018 22:34 6,2 C 5,6 C 3,9 C 88 % 0 lf 999,9 hPa 0,0 l/m 0 min 0 min 0 W/m 15,8 km/h (3 Bft) 95,74 %
05.01.2018 22:36 6,2 C 5,6 C 3,9 C 88 % 0 lf 1000,0 hPa 0,0 l/m 0 min 0 min 0 W/m 18,0 km/h (3 Bft) 93,62 %
05.01.2018 22:38 6,2 C 5,6 C 3,9 C 88 % 0 lf 1000,0 hPa 0,0 l/m 0 min 0 min 0 W/m 18,0 km/h (3 Bft) 95,74 %
05.01.2018 22:40 6,2 C 5,6 C 3,9 C 88 % 0 lf 1000,0 hPa 0,0 l/m 0 min 0 min 0 W/m 13,5 km/h (3 Bft) 91,30 %
05.01.2018 22:42 6,2 C 5,6 C 3,9 C 88 % 0 lf 1000,1 hPa 0,0 l/m 0 min 0 min 0 W/m 18,0 km/h (3 Bft) 93,62 %
05.01.2018 22:44 6,1 C 5,6 C 3,9 C 89 % 0 lf 1000,2 hPa 0,0 l/m 0 min 0 min 0 W/m 11,3 km/h (2 Bft) 93,62 %
05.01.2018 22:46 6,1 C 5,6 C 3,9 C 89 % 0 lf 1000,2 hPa 0,0 l/m 0 min 0 min 0 W/m 9,0 km/h (2 Bft) 93,62 %
05.01.2018 22:48 6,1 C 5,0 C 3,9 C 89 % 0 lf 1000,2 hPa 0,0 l/m 0 min 0 min 0 W/m 13,5 km/h (3 Bft) 93,62 %
05.01.2018 22:50 6,1 C 5,0 C 3,9 C 89 % 0 lf 1000,2 hPa 0,0 l/m 0 min 0 min 0 W/m 13,5 km/h (3 Bft) 93,62 %
05.01.2018 22:52 6,0 C 5,0 C 3,9 C 89 % 0 lf 1000,2 hPa 0,0 l/m 0 min 0 min 0 W/m 18,0 km/h (3 Bft) 91,30 %
05.01.2018 22:54 6,0 C 5,6 C 3,9 C 89 % 0 lf 1000,3 hPa 0,0 l/m 0 min 0 min 0 W/m 15,8 km/h (3 Bft) 91,49 %
05.01.2018 22:56 6,0 C 5,6 C 3,9 C 89 % 0 lf 1000,3 hPa 0,0 l/m 0 min 0 min 0 W/m 18,0 km/h (3 Bft) 95,74 %
05.01.2018 22:58 6,0 C 5,0 C 3,9 C 89 % 0 lf 1000,3 hPa 0,0 l/m 0 min 0 min 0 W/m 11,3 km/h (2 Bft) 91,49 %
05.01.2018 23:00 5,9 C 5,6 C 3,9 C 89 % 0 lf 1000,3 hPa 0,0 l/m 0 min 0 min 0 W/m 15,8 km/h (3 Bft) 93,62 %
05.01.2018 23:02 5,9 C 5,0 C 3,3 C 89 % 0 lf 1000,3 hPa 0,0 l/m 0 min 0 min 0 W/m 15,8 km/h (3 Bft) 91,30 %
05.01.2018 23:04 5,9 C 5,6 C 3,9 C 89 % 0 lf 1000,4 hPa 0,0 l/m 0 min 0 min 0 W/m 13,5 km/h (3 Bft) 91,49 %
05.01.2018 23:06 5,9 C 5,0 C 3,9 C 89 % 0 lf 1000,4 hPa 0,0 l/m 0 min 0 min 0 W/m 15,8 km/h (3 Bft) 93,62 %
05.01.2018 23:08 5,9 C 5,0 C 3,9 C 89 % 0 lf 1000,4 hPa 0,0 l/m 0 min 0 min 0 W/m 13,5 km/h (3 Bft) 91,49 %
05.01.2018 23:10 5,8 C 5,0 C 3,9 C 89 % 0 lf 1000,4 hPa 0,0 l/m 0 min 0 min 0 W/m 13,5 km/h (3 Bft) 95,74 %
05.01.2018 23:12 5,8 C 5,0 C 3,3 C 89 % 0 lf 1000,4 hPa 0,0 l/m 0 min 0 min 0 W/m 11,3 km/h (2 Bft) 95,74 %
05.01.2018 23:14 5,8 C 5,0 C 3,3 C 89 % 0 lf 1000,3 hPa 0,0 l/m 0 min 0 min 0 W/m 20,3 km/h (4 Bft) 97,83 %
05.01.2018 23:16 5,8 C 5,6 C 3,9 C 89 % 0 lf 1000,3 hPa 0,0 l/m 0 min 0 min 0 W/m 27,0 km/h (4 Bft) 100,00 %
05.01.2018 23:18 5,8 C 5,6 C 3,9 C 89 % 0 lf 1000,3 hPa 0,0 l/m 0 min 0 min 0 W/m 18,0 km/h (3 Bft) 100,00 %
05.01.2018 23:20 5,8 C 5,0 C 3,9 C 89 % 0 lf 1000,4 hPa 0,0 l/m 0 min 0 min 0 W/m 15,8 km/h (3 Bft) 97,87 %
05.01.2018 23:22 5,8 C 5,0 C 3,3 C 89 % 0 lf 1000,4 hPa 0,0 l/m 0 min 0 min 0 W/m 11,3 km/h (2 Bft) 100,00 %
05.01.2018 23:24 5,7 C 5,0 C 3,3 C 89 % 0 lf 1000,3 hPa 0,0 l/m 0 min 0 min 0 W/m 15,8 km/h (3 Bft) 97,87 %
05.01.2018 23:26 5,7 C 5,0 C 3,3 C 90 % 0 lf 1000,4 hPa 0,0 l/m 0 min 0 min 0 W/m 15,8 km/h (3 Bft) 97,83 %
05.01.2018 23:28 5,7 C 5,0 C 3,3 C 90 % 0 lf 1000,4 hPa 0,0 l/m 0 min 0 min 0 W/m 6,8 km/h (2 Bft) 97,87 %
05.01.2018 23:30 5,7 C 5,0 C 3,3 C 90 % 0 lf 1000,3 hPa 0,0 l/m 0 min 0 min 0 W/m 11,3 km/h (2 Bft) 97,87 %
05.01.2018 23:32 5,7 C 5,0 C 3,3 C 90 % 0 lf 1000,4 hPa 0,0 l/m 0 min 0 min 0 W/m 11,3 km/h (2 Bft) 97,87 %
05.01.2018 23:34 5,7 C 5,0 C 3,3 C 90 % 0 lf 1000,4 hPa 0,0 l/m 0 min 0 min 0 W/m 13,5 km/h (3 Bft) 100,00 %
05.01.2018 23:36 5,7 C 5,0 C 3,3 C 90 % 0 lf 1000,5 hPa 0,0 l/m 0 min 0 min 0 W/m 13,5 km/h (3 Bft) 97,87 %
05.01.2018 23:38 5,6 C 5,0 C 2,8 C 90 % 0 lf 1000,6 hPa 0,0 l/m 0 min 0 min 0 W/m 13,5 km/h (3 Bft) 100,00 %
05.01.2018 23:40 5,6 C 4,4 C 2,8 C 90 % 0 lf 1000,6 hPa 0,0 l/m 0 min 0 min 0 W/m 9,0 km/h (2 Bft) 100,00 %
05.01.2018 23:42 5,6 C 5,0 C 3,3 C 90 % 0 lf 1000,6 hPa 0,0 l/m 0 min 0 min 0 W/m 13,5 km/h (3 Bft) 100,00 %
05.01.2018 23:44 5,6 C 5,0 C 3,3 C 90 % 0 lf 1000,8 hPa 0,0 l/m 0 min 0 min 0 W/m 11,3 km/h (2 Bft) 100,00 %
05.01.2018 23:46 5,6 C 4,4 C 3,3 C 90 % 0 lf 1000,8 hPa 0,0 l/m 0 min 0 min 0 W/m 9,0 km/h (2 Bft) 100,00 %
05.01.2018 23:48 5,5 C 5,0 C 2,8 C 90 % 0 lf 1000,8 hPa 0,0 l/m 0 min 0 min 0 W/m 13,5 km/h (3 Bft) 95,74 %
05.01.2018 23:50 5,5 C 5,0 C 2,8 C 90 % 0 lf 1000,9 hPa 0,0 l/m 0 min 0 min 0 W/m 11,3 km/h (2 Bft) 100,00 %
05.01.2018 23:52 5,5 C 5,0 C 3,3 C 90 % 0 lf 1000,9 hPa 0,0 l/m 0 min 0 min 0 W/m 11,3 km/h (2 Bft) 97,87 %
05.01.2018 23:54 5,4 C 5,0 C 3,3 C 90 % 0 lf 1000,9 hPa 0,0 l/m 0 min 0 min 0 W/m 9,0 km/h (2 Bft) 100,00 %
05.01.2018 23:56 5,4 C 5,0 C 3,3 C 90 % 0 lf 1000,9 hPa 0,0 l/m 0 min 0 min 0 W/m 9,0 km/h (2 Bft) 100,00 %
05.01.2018 23:58 5,4 C 5,0 C 3,3 C 90 % 0 lf 1000,9 hPa 0,0 l/m 0 min 0 min 0 W/m 13,5 km/h (3 Bft) 100,00 %
_ Min-Zeit 23:54 23:40 23:38 00:00 00:00 06:04 - - - - 16:38 17:00
Minimum _ 5,4 C 4,4 C 2,8 C 78 % 0 lf 993,1 hPa - - - - 6,8 km/h (2 Bft) 84,78 %
_ Max-Zeit 14:26 13:00 12:40 06:22 04:05 23:50 04:12 08:56 04:05 13:00 00:18 00:26
Maximum _ 9,6 C 10,6 C 8,9 C 95 % 15 lf 1000,9 hPa 0,2 l/m 2 min 5 min 153 W/m 67,6 km/h
W-SW (8 Bft)
100,00 %
Durchschnitt _ 8,2 C 8,0 C 6,5 C 87 % 1 lf 996,1 hPa #0,4 l/m #30 min. #1:43 h 78 W/m 25,8 km/h (4 Bft) 96,36 %
© 2018 W. Hausmann